Time,TemperatureF,DewpointF,PressureIn,WindDirection,WindDirectionDegrees,WindSpeedMPH,WindSpeedGustMPH,Humidity,HourlyPrecipIn,Conditions,Clouds,dailyrainin,SoftwareType,DateUTC
2013-03-04 00:01:00,58.5,42.4,-100.00,South,169,11.0,26.0,55,0.00,,,0.00,meteohub,2013-03-04 06:01:00,
2013-03-04 00:03:00,58.5,42.4,-100.00,South,175,11.0,26.0,55,0.00,,,0.00,meteohub,2013-03-04 06:03:00,
2013-03-04 00:06:00,58.5,42.4,-100.00,South,189,26.0,26.0,55,0.00,,,0.00,meteohub,2013-03-04 06:06:00,
2013-03-04 00:07:00,58.5,42.4,-100.00,SSW,203,18.0,26.0,55,0.00,,,0.00,meteohub,2013-03-04 06:07:00,
2013-03-04 00:08:00,58.5,42.4,-100.00,South,182,19.0,26.0,55,0.00,,,0.00,meteohub,2013-03-04 06:08:00,
2013-03-04 00:10:00,58.5,42.4,-100.00,SSW,192,17.0,26.0,55,0.00,,,0.00,meteohub,2013-03-04 06:10:00,
2013-03-04 00:11:00,58.5,42.4,-100.00,South,189,13.0,32.0,55,0.00,,,0.00,meteohub,2013-03-04 06:11:00,
2013-03-04 00:12:00,58.5,42.4,-100.00,South,190,6.0,32.0,55,0.00,,,0.00,meteohub,2013-03-04 06:12:00,
2013-03-04 00:14:00,58.3,42.3,-100.00,SSW,194,12.0,32.0,55,0.00,,,0.00,meteohub,2013-03-04 06:14:00,
2013-03-04 00:15:00,58.3,42.3,-100.00,South,188,11.0,32.0,55,0.00,,,0.00,meteohub,2013-03-04 06:15:00,
2013-03-04 00:16:00,58.3,42.3,-100.00,SSW,196,13.0,32.0,55,0.00,,,0.00,meteohub,2013-03-04 06:16:00,
2013-03-04 00:17:00,58.3,42.3,-100.00,South,175,19.0,32.0,55,0.00,,,0.00,meteohub,2013-03-04 06:17:00,
2013-03-04 00:19:00,58.3,42.6,-100.00,South,170,12.0,32.0,56,0.00,,,0.00,meteohub,2013-03-04 06:19:00,
2013-03-04 00:20:00,58.3,42.3,-100.00,SSW,192,19.0,32.0,55,0.00,,,0.00,meteohub,2013-03-04 06:20:00,
2013-03-04 00:22:00,58.3,42.6,-100.00,SSW,200,17.0,32.0,56,0.00,,,0.00,meteohub,2013-03-04 06:22:00,
2013-03-04 00:23:00,58.1,42.4,-100.00,SSW,194,22.0,32.0,56,0.00,,,0.00,meteohub,2013-03-04 06:23:00,
2013-03-04 00:24:00,58.1,42.4,-100.00,SW,215,21.0,32.0,56,0.00,,,0.00,meteohub,2013-03-04 06:24:00,
2013-03-04 00:25:00,58.1,42.4,-100.00,SSW,196,14.0,24.0,56,0.00,,,0.00,meteohub,2013-03-04 06:25:00,
2013-03-04 00:27:00,58.1,42.4,-100.00,South,186,14.0,24.0,56,0.00,,,0.00,meteohub,2013-03-04 06:27:00,
2013-03-04 00:28:00,58.1,42.4,-100.00,South,191,14.0,24.0,56,0.00,,,0.00,meteohub,2013-03-04 06:28:00,
2013-03-04 00:29:00,58.1,42.4,-100.00,SSW,196,18.0,24.0,56,0.00,,,0.00,meteohub,2013-03-04 06:29:00,
2013-03-04 00:30:00,58.1,42.4,-100.00,SSW,200,20.0,30.0,56,0.00,,,0.00,meteohub,2013-03-04 06:30:00,
2013-03-04 00:32:00,58.1,42.4,-100.00,SW,214,10.0,30.0,56,0.00,,,0.00,meteohub,2013-03-04 06:32:00,
2013-03-04 00:33:00,57.9,42.3,-100.00,SSW,193,12.0,30.0,56,0.00,,,0.00,meteohub,2013-03-04 06:33:00,
2013-03-04 00:34:00,57.9,42.3,-100.00,South,182,15.0,30.0,56,0.00,,,0.00,meteohub,2013-03-04 06:34:00,
2013-03-04 00:35:00,57.9,42.3,-100.00,South,183,12.0,30.0,56,0.00,,,0.00,meteohub,2013-03-04 06:35:00,
2013-03-04 00:37:00,57.9,41.9,-100.00,South,190,20.0,30.0,55,0.00,,,0.00,meteohub,2013-03-04 06:37:00,
2013-03-04 00:38:00,57.9,41.9,-100.00,SSW,194,18.0,30.0,55,0.00,,,0.00,meteohub,2013-03-04 06:38:00,
2013-03-04 00:40:00,57.9,41.9,-100.00,South,177,14.0,30.0,55,0.00,,,0.00,meteohub,2013-03-04 06:40:00,
2013-03-04 00:41:00,57.9,41.9,-100.00,South,191,19.0,25.0,55,0.00,,,0.00,meteohub,2013-03-04 06:41:00,
2013-03-04 00:42:00,57.9,41.9,-100.00,SSW,196,16.0,25.0,55,0.00,,,0.00,meteohub,2013-03-04 06:42:00,
2013-03-04 00:43:00,58.1,41.5,-100.00,South,190,16.0,25.0,54,0.00,,,0.00,meteohub,2013-03-04 06:43:00,
2013-03-04 00:45:00,58.1,41.5,-100.00,SSW,207,16.0,28.0,54,0.00,,,0.00,meteohub,2013-03-04 06:45:00,
2013-03-04 00:46:00,58.1,41.5,-100.00,South,186,10.0,28.0,54,0.00,,,0.00,meteohub,2013-03-04 06:46:00,
2013-03-04 00:48:00,58.1,41.5,-100.00,South,182,18.0,28.0,54,0.00,,,0.00,meteohub,2013-03-04 06:48:00,
2013-03-04 00:51:00,58.1,41.5,-100.00,SSW,211,12.0,28.0,54,0.00,,,0.00,meteohub,2013-03-04 06:51:00,
2013-03-04 00:53:00,58.1,41.0,-100.00,SSW,206,12.0,28.0,53,0.00,,,0.00,meteohub,2013-03-04 06:53:00,
2013-03-04 00:56:00,58.1,41.0,-100.00,SSW,199,13.0,28.0,53,0.00,,,0.00,meteohub,2013-03-04 06:56:00,
2013-03-04 00:58:00,58.1,41.0,-100.00,SSW,194,15.0,28.0,53,0.00,,,0.00,meteohub,2013-03-04 06:58:00,
2013-03-04 00:59:00,58.1,41.0,-100.00,SSW,207,18.0,28.0,53,0.00,,,0.00,meteohub,2013-03-04 06:59:00,
2013-03-04 01:01:00,58.1,41.0,-100.00,SSW,198,7.0,29.0,53,0.00,,,0.00,meteohub,2013-03-04 07:01:00,
2013-03-04 01:03:00,58.1,41.0,-100.00,South,187,21.0,29.0,53,0.00,,,0.00,meteohub,2013-03-04 07:03:00,
2013-03-04 01:04:00,58.1,41.0,-100.00,South,175,19.0,29.0,53,0.00,,,0.00,meteohub,2013-03-04 07:04:00,
2013-03-04 01:06:00,58.1,41.0,-100.00,SSW,200,18.0,29.0,53,0.00,,,0.00,meteohub,2013-03-04 07:06:00,
2013-03-04 01:07:00,58.1,41.0,-100.00,SSW,211,18.0,29.0,53,0.00,,,0.00,meteohub,2013-03-04 07:07:00,
2013-03-04 01:08:00,57.9,40.8,-100.00,South,182,15.0,29.0,53,0.00,,,0.00,meteohub,2013-03-04 07:08:00,
2013-03-04 01:09:00,57.9,40.8,-100.00,South,184,15.0,29.0,53,0.00,,,0.00,meteohub,2013-03-04 07:09:00,
2013-03-04 01:11:00,57.9,40.8,-100.00,South,189,15.0,31.0,53,0.00,,,0.00,meteohub,2013-03-04 07:11:00,
2013-03-04 01:12:00,57.9,40.8,-100.00,SSW,211,21.0,31.0,53,0.00,,,0.00,meteohub,2013-03-04 07:12:00,
2013-03-04 01:13:00,57.9,40.8,-100.00,SSW,205,22.0,31.0,53,0.00,,,0.00,meteohub,2013-03-04 07:13:00,
2013-03-04 01:14:00,57.7,40.6,-100.00,South,184,20.0,31.0,53,0.00,,,0.00,meteohub,2013-03-04 07:14:00,
2013-03-04 01:17:00,57.7,40.6,-100.00,SSW,192,26.0,31.0,53,0.00,,,0.00,meteohub,2013-03-04 07:17:00,
2013-03-04 01:19:00,57.7,40.6,-100.00,SW,217,19.0,31.0,53,0.00,,,0.00,meteohub,2013-03-04 07:19:00,
2013-03-04 01:20:00,57.7,40.6,-100.00,SSW,211,24.0,31.0,53,0.00,,,0.00,meteohub,2013-03-04 07:20:00,
2013-03-04 01:22:00,57.7,40.6,-100.00,SSW,199,12.0,31.0,53,0.00,,,0.00,meteohub,2013-03-04 07:22:00,
2013-03-04 01:24:00,57.6,40.6,-100.00,SSW,195,18.0,31.0,53,0.00,,,0.00,meteohub,2013-03-04 07:24:00,
2013-03-04 01:25:00,57.6,40.6,-100.00,SSE,167,22.0,28.0,53,0.00,,,0.00,meteohub,2013-03-04 07:25:00,
2013-03-04 01:27:00,57.6,40.6,-100.00,South,186,14.0,28.0,53,0.00,,,0.00,meteohub,2013-03-04 07:27:00,
2013-03-04 01:29:00,57.6,40.6,-100.00,SSW,194,24.0,28.0,53,0.00,,,0.00,meteohub,2013-03-04 07:29:00,
2013-03-04 01:30:00,57.6,40.6,-100.00,South,190,24.0,32.0,53,0.00,,,0.00,meteohub,2013-03-04 07:30:00,
2013-03-04 01:32:00,57.6,40.6,-100.00,SSW,196,16.0,32.0,53,0.00,,,0.00,meteohub,2013-03-04 07:32:00,
2013-03-04 01:33:00,57.6,40.6,-100.00,South,186,17.0,32.0,53,0.00,,,0.00,meteohub,2013-03-04 07:33:00,
2013-03-04 01:34:00,57.6,41.0,-100.00,SSW,193,20.0,32.0,54,0.00,,,0.00,meteohub,2013-03-04 07:34:00,
2013-03-04 01:36:00,57.6,41.0,-100.00,South,174,18.0,35.0,54,0.00,,,0.00,meteohub,2013-03-04 07:36:00,
2013-03-04 01:37:00,57.6,41.0,-100.00,South,178,18.0,35.0,54,0.00,,,0.00,meteohub,2013-03-04 07:37:00,
2013-03-04 01:38:00,57.6,41.0,-100.00,SW,217,17.0,35.0,54,0.00,,,0.00,meteohub,2013-03-04 07:38:00,
2013-03-04 01:39:00,57.6,41.0,-100.00,South,188,13.0,35.0,54,0.00,,,0.00,meteohub,2013-03-04 07:39:00,
2013-03-04 01:41:00,57.6,41.0,-100.00,SSW,209,15.0,35.0,54,0.00,,,0.00,meteohub,2013-03-04 07:41:00,
2013-03-04 01:42:00,57.6,41.0,-100.00,SSW,209,17.0,35.0,54,0.00,,,0.00,meteohub,2013-03-04 07:42:00,
2013-03-04 01:43:00,57.6,41.0,-100.00,SSW,201,15.0,35.0,54,0.00,,,0.00,meteohub,2013-03-04 07:43:00,
2013-03-04 01:44:00,57.6,41.0,-100.00,SSW,203,12.0,35.0,54,0.00,,,0.00,meteohub,2013-03-04 07:44:00,
2013-03-04 01:46:00,57.4,40.8,-100.00,SSE,167,18.0,35.0,54,0.00,,,0.00,meteohub,2013-03-04 07:46:00,
2013-03-04 01:47:00,57.4,41.4,-100.00,SSW,205,20.0,35.0,55,0.00,,,0.00,meteohub,2013-03-04 07:47:00,
2013-03-04 01:48:00,57.4,41.4,-100.00,SSW,196,18.0,35.0,55,0.00,,,0.00,meteohub,2013-03-04 07:48:00,
2013-03-04 01:49:00,57.2,41.2,-100.00,SSE,156,19.0,35.0,55,0.00,,,0.00,meteohub,2013-03-04 07:49:00,
2013-03-04 01:51:00,57.2,41.2,-100.00,SSW,200,13.0,29.0,55,0.00,,,0.00,meteohub,2013-03-04 07:51:00,
2013-03-04 01:52:00,57.2,41.2,-100.00,SSW,203,13.0,29.0,55,0.00,,,0.00,meteohub,2013-03-04 07:52:00,
2013-03-04 01:53:00,57.0,41.0,-100.00,SSW,193,15.0,29.0,55,0.00,,,0.00,meteohub,2013-03-04 07:53:00,
2013-03-04 01:54:00,57.0,41.0,-100.00,South,179,12.0,29.0,55,0.00,,,0.00,meteohub,2013-03-04 07:54:00,
2013-03-04 01:57:00,56.8,41.4,-100.00,South,191,13.0,29.0,56,0.00,,,0.00,meteohub,2013-03-04 07:57:00,
2013-03-04 01:58:00,56.8,41.4,-100.00,South,188,10.0,29.0,56,0.00,,,0.00,meteohub,2013-03-04 07:58:00,
2013-03-04 01:59:00,56.8,41.4,-100.00,SSW,194,20.0,29.0,56,0.00,,,0.00,meteohub,2013-03-04 07:59:00,
2013-03-04 02:02:00,56.7,41.2,-100.00,SSW,194,24.0,29.0,56,0.00,,,0.00,meteohub,2013-03-04 08:02:00,
2013-03-04 02:03:00,56.7,41.2,-100.00,SSW,193,15.0,29.0,56,0.00,,,0.00,meteohub,2013-03-04 08:03:00,
2013-03-04 02:04:00,56.7,41.2,-100.00,SSW,202,20.0,29.0,56,0.00,,,0.00,meteohub,2013-03-04 08:04:00,
2013-03-04 02:05:00,56.7,41.2,-100.00,South,183,15.0,29.0,56,0.00,,,0.00,meteohub,2013-03-04 08:05:00,
2013-03-04 02:07:00,56.7,41.5,-100.00,South,189,22.0,33.0,57,0.00,,,0.00,meteohub,2013-03-04 08:07:00,
2013-03-04 02:08:00,56.7,41.5,-100.00,South,184,16.0,33.0,57,0.00,,,0.00,meteohub,2013-03-04 08:08:00,
2013-03-04 02:09:00,56.7,41.5,-100.00,South,178,21.0,33.0,57,0.00,,,0.00,meteohub,2013-03-04 08:09:00,
2013-03-04 02:10:00,56.7,41.5,-100.00,South,179,17.0,33.0,57,0.00,,,0.00,meteohub,2013-03-04 08:10:00,
2013-03-04 02:13:00,56.7,41.5,-100.00,SSW,202,15.0,33.0,57,0.00,,,0.00,meteohub,2013-03-04 08:13:00,
2013-03-04 02:15:00,56.7,41.5,-100.00,South,188,18.0,33.0,57,0.00,,,0.00,meteohub,2013-03-04 08:15:00,
2013-03-04 02:18:00,56.5,41.9,-100.00,South,184,10.0,33.0,58,0.00,,,0.00,meteohub,2013-03-04 08:18:00,
2013-03-04 02:20:00,56.5,41.9,-100.00,SSW,192,15.0,31.0,58,0.00,,,0.00,meteohub,2013-03-04 08:20:00,
2013-03-04 02:23:00,56.3,42.1,-100.00,SSW,201,19.0,31.0,59,0.00,,,0.00,meteohub,2013-03-04 08:23:00,
2013-03-04 02:24:00,56.3,42.1,-100.00,SSW,208,19.0,31.0,59,0.00,,,0.00,meteohub,2013-03-04 08:24:00,
2013-03-04 02:25:00,56.1,41.9,-100.00,SSW,202,22.0,31.0,59,0.00,,,0.00,meteohub,2013-03-04 08:25:00,
2013-03-04 02:29:00,56.1,41.9,-100.00,SSW,196,13.0,31.0,59,0.00,,,0.00,meteohub,2013-03-04 08:29:00,
2013-03-04 02:30:00,56.1,41.9,-100.00,SSW,198,20.0,31.0,59,0.00,,,0.00,meteohub,2013-03-04 08:30:00,
2013-03-04 02:31:00,56.1,41.9,-100.00,SSW,211,15.0,31.0,59,0.00,,,0.00,meteohub,2013-03-04 08:31:00,
2013-03-04 02:34:00,56.1,41.9,-100.00,South,183,11.0,31.0,59,0.00,,,0.00,meteohub,2013-03-04 08:34:00,
2013-03-04 02:35:00,56.1,41.9,-100.00,SSW,207,13.0,33.0,59,0.00,,,0.00,meteohub,2013-03-04 08:35:00,
2013-03-04 02:36:00,56.1,42.4,-100.00,SSW,197,16.0,33.0,60,0.00,,,0.00,meteohub,2013-03-04 08:36:00,
2013-03-04 02:39:00,56.1,42.4,-100.00,SSW,211,14.0,33.0,60,0.00,,,0.00,meteohub,2013-03-04 08:39:00,
2013-03-04 02:41:00,56.1,42.4,-100.00,SSW,212,11.0,35.0,60,0.00,,,0.00,meteohub,2013-03-04 08:41:00,
2013-03-04 02:44:00,56.1,42.4,-100.00,SSW,207,11.0,35.0,60,0.00,,,0.00,meteohub,2013-03-04 08:44:00,
2013-03-04 02:46:00,56.1,42.4,-100.00,SSW,205,15.0,35.0,60,0.00,,,0.00,meteohub,2013-03-04 08:46:00,
2013-03-04 02:49:00,56.1,42.4,-100.00,SSW,196,18.0,35.0,60,0.00,,,0.00,meteohub,2013-03-04 08:49:00,
2013-03-04 02:50:00,56.1,42.4,-100.00,SSW,202,13.0,35.0,60,0.00,,,0.00,meteohub,2013-03-04 08:50:00,
2013-03-04 02:51:00,55.9,42.3,-100.00,SW,214,12.0,35.0,60,0.00,,,0.00,meteohub,2013-03-04 08:51:00,
2013-03-04 02:52:00,55.9,42.3,-100.00,SSW,210,16.0,35.0,60,0.00,,,0.00,meteohub,2013-03-04 08:52:00,
2013-03-04 02:54:00,55.9,42.3,-100.00,SSW,207,30.0,35.0,60,0.00,,,0.00,meteohub,2013-03-04 08:54:00,
2013-03-04 02:55:00,55.9,42.6,-100.00,South,188,11.0,28.0,61,0.00,,,0.00,meteohub,2013-03-04 08:55:00,
2013-03-04 02:56:00,55.9,42.6,-100.00,SSW,212,16.0,28.0,61,0.00,,,0.00,meteohub,2013-03-04 08:56:00,
2013-03-04 02:57:00,55.9,42.6,-100.00,SSW,205,10.0,28.0,61,0.00,,,0.00,meteohub,2013-03-04 08:57:00,
2013-03-04 02:59:00,55.9,42.6,-100.00,SSW,192,25.0,28.0,61,0.00,,,0.00,meteohub,2013-03-04 08:59:00,
2013-03-04 03:00:00,55.9,42.6,-100.00,SW,221,23.0,31.0,61,0.00,,,0.00,meteohub,2013-03-04 09:00:00,
2013-03-04 03:01:00,55.9,42.6,-100.00,SSW,206,11.0,31.0,61,0.00,,,0.00,meteohub,2013-03-04 09:01:00,
2013-03-04 03:02:00,55.9,42.6,-100.00,SSW,197,11.0,31.0,61,0.00,,,0.00,meteohub,2013-03-04 09:02:00,
2013-03-04 03:04:00,55.9,42.6,-100.00,SSW,209,17.0,31.0,61,0.00,,,0.00,meteohub,2013-03-04 09:04:00,
2013-03-04 03:06:00,55.9,42.6,-100.00,South,181,16.0,31.0,61,0.00,,,0.00,meteohub,2013-03-04 09:06:00,
2013-03-04 03:08:00,55.9,42.6,-100.00,SSW,194,15.0,31.0,61,0.00,,,0.00,meteohub,2013-03-04 09:08:00,
2013-03-04 03:09:00,55.9,42.6,-100.00,SW,217,18.0,31.0,61,0.00,,,0.00,meteohub,2013-03-04 09:09:00,
2013-03-04 03:11:00,55.9,42.6,-100.00,SSW,211,23.0,30.0,61,0.00,,,0.00,meteohub,2013-03-04 09:11:00,
2013-03-04 03:12:00,55.9,42.6,-100.00,SSW,204,16.0,30.0,61,0.00,,,0.00,meteohub,2013-03-04 09:12:00,
2013-03-04 03:13:00,55.9,42.6,-100.00,SSW,196,9.0,30.0,61,0.00,,,0.00,meteohub,2013-03-04 09:13:00,
2013-03-04 03:15:00,55.9,42.6,-100.00,SSW,202,19.0,31.0,61,0.00,,,0.00,meteohub,2013-03-04 09:15:00,
2013-03-04 03:16:00,55.9,42.6,-100.00,SSW,199,16.0,31.0,61,0.00,,,0.00,meteohub,2013-03-04 09:16:00,
2013-03-04 03:17:00,55.9,42.6,-100.00,SSW,192,18.0,31.0,61,0.00,,,0.00,meteohub,2013-03-04 09:17:00,
2013-03-04 03:19:00,55.9,42.6,-100.00,SSW,200,24.0,31.0,61,0.00,,,0.00,meteohub,2013-03-04 09:19:00,
2013-03-04 03:20:00,55.9,42.6,-100.00,South,180,29.0,31.0,61,0.00,,,0.00,meteohub,2013-03-04 09:20:00,
2013-03-04 03:21:00,55.9,42.6,-100.00,SSW,196,11.0,31.0,61,0.00,,,0.00,meteohub,2013-03-04 09:21:00,
2013-03-04 03:22:00,55.9,42.6,-100.00,SSW,206,15.0,31.0,61,0.00,,,0.00,meteohub,2013-03-04 09:22:00,
2013-03-04 03:24:00,55.9,42.6,-100.00,SW,215,18.0,31.0,61,0.00,,,0.00,meteohub,2013-03-04 09:24:00,
2013-03-04 03:25:00,55.9,42.6,-100.00,SSW,211,23.0,31.0,61,0.00,,,0.00,meteohub,2013-03-04 09:25:00,
2013-03-04 03:26:00,55.9,42.6,-100.00,SW,214,15.0,31.0,61,0.00,,,0.00,meteohub,2013-03-04 09:26:00,
2013-03-04 03:27:00,55.9,42.6,-100.00,SSW,203,12.0,31.0,61,0.00,,,0.00,meteohub,2013-03-04 09:27:00,
2013-03-04 03:29:00,55.9,42.6,-100.00,SSW,212,24.0,31.0,61,0.00,,,0.00,meteohub,2013-03-04 09:29:00,
2013-03-04 03:30:00,55.9,42.6,-100.00,SSW,208,20.0,33.0,61,0.00,,,0.00,meteohub,2013-03-04 09:30:00,
2013-03-04 03:31:00,55.9,43.2,-100.00,SW,215,25.0,33.0,62,0.00,,,0.00,meteohub,2013-03-04 09:31:00,
2013-03-04 03:32:00,55.9,43.2,-100.00,SSW,199,21.0,33.0,62,0.00,,,0.00,meteohub,2013-03-04 09:32:00,
2013-03-04 03:34:00,55.9,42.6,-100.00,South,178,12.0,33.0,61,0.00,,,0.00,meteohub,2013-03-04 09:34:00,
2013-03-04 03:35:00,55.9,43.2,-100.00,SW,215,24.0,33.0,62,0.00,,,0.00,meteohub,2013-03-04 09:35:00,
2013-03-04 03:36:00,55.9,43.2,-100.00,SW,225,20.0,33.0,62,0.00,,,0.00,meteohub,2013-03-04 09:36:00,
2013-03-04 03:37:00,55.9,43.2,-100.00,SSW,192,13.0,33.0,62,0.00,,,0.00,meteohub,2013-03-04 09:37:00,
2013-03-04 03:39:00,55.9,43.2,-100.00,SSW,203,11.0,33.0,62,0.00,,,0.00,meteohub,2013-03-04 09:39:00,
2013-03-04 03:41:00,55.9,43.2,-100.00,SSW,204,20.0,33.0,62,0.00,,,0.00,meteohub,2013-03-04 09:41:00,
2013-03-04 03:42:00,55.9,43.2,-100.00,SSW,193,22.0,33.0,62,0.00,,,0.00,meteohub,2013-03-04 09:42:00,
2013-03-04 03:46:00,55.9,43.2,-100.00,SW,227,21.0,32.0,62,0.00,,,0.00,meteohub,2013-03-04 09:46:00,
2013-03-04 03:47:00,55.9,43.2,-100.00,SSW,207,17.0,32.0,62,0.00,,,0.00,meteohub,2013-03-04 09:47:00,
2013-03-04 03:51:00,55.9,43.5,-100.00,SSW,193,15.0,32.0,63,0.00,,,0.00,meteohub,2013-03-04 09:51:00,
2013-03-04 03:52:00,55.9,43.5,-100.00,SSW,200,20.0,32.0,63,0.00,,,0.00,meteohub,2013-03-04 09:52:00,
2013-03-04 03:56:00,55.8,43.3,-100.00,SSW,206,18.0,32.0,63,0.00,,,0.00,meteohub,2013-03-04 09:56:00,
2013-03-04 03:57:00,55.8,43.3,-100.00,SSW,207,15.0,32.0,63,0.00,,,0.00,meteohub,2013-03-04 09:57:00,
2013-03-04 04:02:00,55.6,43.5,-100.00,SW,225,21.0,30.0,64,0.00,,,0.00,meteohub,2013-03-04 10:02:00,
2013-03-04 04:03:00,55.6,43.5,-100.00,SSW,205,12.0,30.0,64,0.00,,,0.00,meteohub,2013-03-04 10:03:00,
2013-03-04 04:07:00,55.4,43.3,-100.00,SSW,195,15.0,30.0,64,0.00,,,0.00,meteohub,2013-03-04 10:07:00,
2013-03-04 04:08:00,55.4,43.3,-100.00,SSW,212,25.0,30.0,64,0.00,,,0.00,meteohub,2013-03-04 10:08:00,
2013-03-04 04:12:00,55.2,43.3,-100.00,SSW,209,17.0,29.0,64,0.00,,,0.00,meteohub,2013-03-04 10:12:00,
2013-03-04 04:13:00,55.2,43.3,-100.00,SSW,201,22.0,29.0,64,0.00,,,0.00,meteohub,2013-03-04 10:13:00,
2013-03-04 04:17:00,55.2,43.7,-100.00,SSW,197,20.0,30.0,65,0.00,,,0.00,meteohub,2013-03-04 10:17:00,
2013-03-04 04:18:00,55.2,43.3,-100.00,SW,215,18.0,30.0,64,0.00,,,0.00,meteohub,2013-03-04 10:18:00,
2013-03-04 04:19:00,55.2,43.3,-100.00,SSW,194,20.0,30.0,64,0.00,,,0.00,meteohub,2013-03-04 10:19:00,
2013-03-04 04:23:00,55.2,43.7,-100.00,SW,216,16.0,30.0,65,0.00,,,0.00,meteohub,2013-03-04 10:23:00,
2013-03-04 04:24:00,55.2,43.7,-100.00,SSW,202,17.0,30.0,65,0.00,,,0.00,meteohub,2013-03-04 10:24:00,
2013-03-04 04:28:00,55.0,43.5,-100.00,SSW,213,14.0,30.0,65,0.00,,,0.00,meteohub,2013-03-04 10:28:00,
2013-03-04 04:29:00,55.0,43.5,-100.00,SSW,207,16.0,30.0,65,0.00,,,0.00,meteohub,2013-03-04 10:29:00,
2013-03-04 04:30:00,55.0,43.5,-100.00,SW,222,20.0,30.0,65,0.00,,,0.00,meteohub,2013-03-04 10:30:00,
2013-03-04 04:34:00,55.0,43.5,-100.00,SSW,203,17.0,33.0,65,0.00,,,0.00,meteohub,2013-03-04 10:34:00,
2013-03-04 04:36:00,55.0,43.5,-100.00,SSW,211,19.0,33.0,65,0.00,,,0.00,meteohub,2013-03-04 10:36:00,
2013-03-04 04:39:00,55.0,43.5,-100.00,SSW,206,15.0,33.0,65,0.00,,,0.00,meteohub,2013-03-04 10:39:00,
2013-03-04 04:42:00,55.0,43.5,-100.00,SSW,205,26.0,26.0,65,0.00,,,0.00,meteohub,2013-03-04 10:42:00,
2013-03-04 04:44:00,55.0,43.5,-100.00,SSW,200,14.0,26.0,65,0.00,,,0.00,meteohub,2013-03-04 10:44:00,
2013-03-04 04:45:00,55.0,43.5,-100.00,SSW,211,22.0,26.0,65,0.00,,,0.00,meteohub,2013-03-04 10:45:00,
2013-03-04 04:47:00,55.0,43.5,-100.00,SSW,208,13.0,31.0,65,0.00,,,0.00,meteohub,2013-03-04 10:47:00,
2013-03-04 04:49:00,55.0,43.5,-100.00,SSW,207,17.0,31.0,65,0.00,,,0.00,meteohub,2013-03-04 10:49:00,
2013-03-04 04:50:00,55.0,43.5,-100.00,SSW,208,18.0,31.0,65,0.00,,,0.00,meteohub,2013-03-04 10:50:00,
2013-03-04 04:52:00,55.0,43.5,-100.00,SSW,205,14.0,31.0,65,0.00,,,0.00,meteohub,2013-03-04 10:52:00,
2013-03-04 04:54:00,55.0,43.5,-100.00,SSW,205,16.0,31.0,65,0.00,,,0.00,meteohub,2013-03-04 10:54:00,
2013-03-04 04:55:00,55.0,43.5,-100.00,SSW,206,13.0,31.0,65,0.00,,,0.00,meteohub,2013-03-04 10:55:00,
2013-03-04 04:57:00,55.0,43.5,-100.00,SSW,202,16.0,31.0,65,0.00,,,0.00,meteohub,2013-03-04 10:57:00,
2013-03-04 05:00:00,55.0,43.9,-100.00,South,184,11.0,31.0,66,0.00,,,0.00,meteohub,2013-03-04 11:00:00,
2013-03-04 05:02:00,55.0,43.9,-100.00,SSW,197,15.0,26.0,66,0.00,,,0.00,meteohub,2013-03-04 11:02:00,
2013-03-04 05:05:00,54.9,43.7,-100.00,SSW,205,10.0,26.0,66,0.00,,,0.00,meteohub,2013-03-04 11:05:00,
2013-03-04 05:06:00,54.9,43.7,-100.00,SSW,202,18.0,26.0,66,0.00,,,0.00,meteohub,2013-03-04 11:06:00,
2013-03-04 05:08:00,55.0,43.9,-100.00,SW,219,13.0,26.0,66,0.00,,,0.00,meteohub,2013-03-04 11:08:00,
2013-03-04 05:10:00,55.0,43.9,-100.00,SSW,202,13.0,26.0,66,0.00,,,0.00,meteohub,2013-03-04 11:10:00,
2013-03-04 05:11:00,54.9,43.7,-100.00,SSW,200,19.0,26.0,66,0.00,,,0.00,meteohub,2013-03-04 11:11:00,
2013-03-04 05:14:00,54.9,43.7,-100.00,SSW,199,12.0,26.0,66,0.00,,,0.00,meteohub,2013-03-04 11:14:00,
2013-03-04 05:15:00,54.9,43.7,-100.00,SSW,211,13.0,26.0,66,0.00,,,0.00,meteohub,2013-03-04 11:15:00,
2013-03-04 05:16:00,54.9,43.7,-100.00,SSW,194,15.0,24.0,66,0.00,,,0.00,meteohub,2013-03-04 11:16:00,
2013-03-04 05:17:00,54.9,43.7,-100.00,SSW,196,11.0,24.0,66,0.00,,,0.00,meteohub,2013-03-04 11:17:00,
2013-03-04 05:19:00,54.9,43.7,-100.00,SSW,211,11.0,24.0,66,0.00,,,0.00,meteohub,2013-03-04 11:19:00,
2013-03-04 05:20:00,55.0,43.9,-100.00,SSW,196,13.0,24.0,66,0.00,,,0.00,meteohub,2013-03-04 11:20:00,
2013-03-04 05:21:00,55.0,43.9,-100.00,SSW,197,14.0,24.0,66,0.00,,,0.00,meteohub,2013-03-04 11:21:00,
2013-03-04 05:22:00,55.0,44.2,-100.00,South,191,10.0,24.0,67,0.00,,,0.00,meteohub,2013-03-04 11:22:00,
2013-03-04 05:24:00,55.0,44.2,-100.00,SSW,194,17.0,24.0,67,0.00,,,0.00,meteohub,2013-03-04 11:24:00,
2013-03-04 05:25:00,55.0,44.2,-100.00,SSW,196,11.0,23.0,67,0.00,,,0.00,meteohub,2013-03-04 11:25:00,
2013-03-04 05:26:00,55.0,44.2,-100.00,SW,214,15.0,23.0,67,0.00,,,0.00,meteohub,2013-03-04 11:26:00,
2013-03-04 05:27:00,55.0,44.2,-100.00,South,175,12.0,23.0,67,0.00,,,0.00,meteohub,2013-03-04 11:27:00,
2013-03-04 05:29:00,55.0,44.2,-100.00,SSW,201,15.0,23.0,67,0.00,,,0.00,meteohub,2013-03-04 11:29:00,
2013-03-04 05:30:00,55.0,44.2,-100.00,SW,215,14.0,23.0,67,0.00,,,0.00,meteohub,2013-03-04 11:30:00,
2013-03-04 05:31:00,55.0,44.2,-100.00,SSW,195,10.0,23.0,67,0.00,,,0.00,meteohub,2013-03-04 11:31:00,
2013-03-04 05:32:00,55.0,44.2,-100.00,SW,215,18.0,23.0,67,0.00,,,0.00,meteohub,2013-03-04 11:32:00,
2013-03-04 05:35:00,55.0,44.2,-100.00,SSW,200,7.0,23.0,67,0.00,,,0.00,meteohub,2013-03-04 11:35:00,
2013-03-04 05:36:00,55.0,44.2,-100.00,SSW,198,13.0,23.0,67,0.00,,,0.00,meteohub,2013-03-04 11:36:00,
2013-03-04 05:37:00,55.0,44.2,-100.00,South,189,9.0,23.0,67,0.00,,,0.00,meteohub,2013-03-04 11:37:00,
2013-03-04 05:40:00,55.0,44.2,-100.00,SSW,201,15.0,25.0,67,0.00,,,0.00,meteohub,2013-03-04 11:40:00,
2013-03-04 05:41:00,55.0,44.2,-100.00,South,190,16.0,25.0,67,0.00,,,0.00,meteohub,2013-03-04 11:41:00,
2013-03-04 05:42:00,55.0,44.2,-100.00,SSW,194,12.0,25.0,67,0.00,,,0.00,meteohub,2013-03-04 11:42:00,
2013-03-04 05:43:00,55.2,44.4,-100.00,SSW,200,9.0,25.0,67,0.00,,,0.00,meteohub,2013-03-04 11:43:00,
2013-03-04 05:46:00,55.2,44.4,-100.00,SSW,213,21.0,28.0,67,0.00,,,0.00,meteohub,2013-03-04 11:46:00,
2013-03-04 05:47:00,55.2,44.4,-100.00,SSW,213,16.0,28.0,67,0.00,,,0.00,meteohub,2013-03-04 11:47:00,
2013-03-04 05:48:00,55.4,44.6,-100.00,SSW,211,16.0,28.0,67,0.00,,,0.00,meteohub,2013-03-04 11:48:00,
2013-03-04 05:51:00,55.4,44.6,-100.00,SSW,192,14.0,28.0,67,0.00,,,0.00,meteohub,2013-03-04 11:51:00,
2013-03-04 05:52:00,55.4,44.6,-100.00,SSW,213,12.0,28.0,67,0.00,,,0.00,meteohub,2013-03-04 11:52:00,
2013-03-04 05:54:00,55.4,44.6,-100.00,SSW,209,15.0,28.0,67,0.00,,,0.00,meteohub,2013-03-04 11:54:00,
2013-03-04 05:56:00,55.6,44.8,-100.00,SSW,196,13.0,26.0,67,0.00,,,0.00,meteohub,2013-03-04 11:56:00,
2013-03-04 05:57:00,55.6,44.8,-100.00,SSW,202,20.0,26.0,67,0.00,,,0.00,meteohub,2013-03-04 11:57:00,
2013-03-04 05:58:00,55.6,44.8,-100.00,SSW,198,13.0,26.0,67,0.00,,,0.00,meteohub,2013-03-04 11:58:00,
2013-03-04 05:59:00,55.6,44.8,-100.00,SSW,211,20.0,26.0,67,0.00,,,0.00,meteohub,2013-03-04 11:59:00,
2013-03-04 06:01:00,55.8,45.0,-100.00,SSW,212,14.0,29.0,67,0.00,,,0.00,meteohub,2013-03-04 12:01:00,
2013-03-04 06:02:00,55.8,45.0,-100.00,SSW,204,19.0,29.0,67,0.00,,,0.00,meteohub,2013-03-04 12:02:00,
2013-03-04 06:03:00,55.8,45.0,-100.00,SSW,204,13.0,29.0,67,0.00,,,0.00,meteohub,2013-03-04 12:03:00,
2013-03-04 06:04:00,55.8,45.0,-100.00,SW,214,14.0,29.0,67,0.00,,,0.00,meteohub,2013-03-04 12:04:00,
2013-03-04 06:07:00,55.8,45.0,-100.00,SW,216,11.0,29.0,67,0.00,,,0.00,meteohub,2013-03-04 12:07:00,
2013-03-04 06:09:00,55.8,45.0,-100.00,SSW,202,10.0,29.0,67,0.00,,,0.00,meteohub,2013-03-04 12:09:00,
2013-03-04 06:10:00,55.8,45.0,-100.00,SSW,199,19.0,28.0,67,0.00,,,0.00,meteohub,2013-03-04 12:10:00,
2013-03-04 06:12:00,55.8,45.0,-100.00,SSW,199,15.0,28.0,67,0.00,,,0.00,meteohub,2013-03-04 12:12:00,
2013-03-04 06:14:00,55.8,45.0,-100.00,SSW,201,12.0,28.0,67,0.00,,,0.00,meteohub,2013-03-04 12:14:00,
2013-03-04 06:15:00,55.8,45.0,-100.00,SSW,199,18.0,28.0,67,0.00,,,0.00,meteohub,2013-03-04 12:15:00,
2013-03-04 06:17:00,55.8,45.0,-100.00,SSW,207,14.0,28.0,67,0.00,,,0.00,meteohub,2013-03-04 12:17:00,
2013-03-04 06:18:00,55.8,45.3,-100.00,SW,215,14.0,28.0,68,0.00,,,0.00,meteohub,2013-03-04 12:18:00,
2013-03-04 06:19:00,55.8,45.3,-100.00,SSW,201,18.0,28.0,68,0.00,,,0.00,meteohub,2013-03-04 12:19:00,
2013-03-04 06:21:00,55.8,45.3,-100.00,South,189,10.0,28.0,68,0.00,,,0.00,meteohub,2013-03-04 12:21:00,
2013-03-04 06:23:00,55.9,45.5,-100.00,SSW,199,19.0,28.0,68,0.00,,,0.00,meteohub,2013-03-04 12:23:00,
2013-03-04 06:24:00,55.9,45.5,-100.00,SSW,200,18.0,28.0,68,0.00,,,0.00,meteohub,2013-03-04 12:24:00,
2013-03-04 06:25:00,55.9,45.5,-100.00,SSW,211,17.0,28.0,68,0.00,,,0.00,meteohub,2013-03-04 12:25:00,
2013-03-04 06:26:00,55.9,45.5,-100.00,SSW,206,13.0,30.0,68,0.00,,,0.00,meteohub,2013-03-04 12:26:00,
2013-03-04 06:28:00,55.9,45.5,-100.00,SSW,207,22.0,30.0,68,0.00,,,0.00,meteohub,2013-03-04 12:28:00,
2013-03-04 06:29:00,55.9,45.5,-100.00,SW,214,23.0,30.0,68,0.00,,,0.00,meteohub,2013-03-04 12:29:00,
2013-03-04 06:30:00,55.9,45.5,-100.00,SW,232,14.0,30.0,68,0.00,,,0.00,meteohub,2013-03-04 12:30:00,
2013-03-04 06:31:00,55.9,45.5,-100.00,South,187,16.0,30.0,68,0.00,,,0.00,meteohub,2013-03-04 12:31:00,
2013-03-04 06:33:00,55.9,45.5,-100.00,SW,215,15.0,30.0,68,0.00,,,0.00,meteohub,2013-03-04 12:33:00,
2013-03-04 06:34:00,55.9,45.5,-100.00,SSW,203,19.0,30.0,68,0.00,,,0.00,meteohub,2013-03-04 12:34:00,
2013-03-04 06:35:00,55.9,45.9,-100.00,SSW,202,23.0,30.0,69,0.00,,,0.00,meteohub,2013-03-04 12:35:00,
2013-03-04 06:36:00,55.9,45.9,-100.00,SSW,200,13.0,30.0,69,0.00,,,0.00,meteohub,2013-03-04 12:36:00,
2013-03-04 06:38:00,55.9,45.9,-100.00,South,190,14.0,30.0,69,0.00,,,0.00,meteohub,2013-03-04 12:38:00,
2013-03-04 06:40:00,55.9,45.9,-100.00,SSW,196,13.0,29.0,69,0.00,,,0.00,meteohub,2013-03-04 12:40:00,
2013-03-04 06:41:00,55.8,45.7,-100.00,SW,215,13.0,29.0,69,0.00,,,0.00,meteohub,2013-03-04 12:41:00,
2013-03-04 06:42:00,55.8,45.7,-100.00,SW,221,21.0,29.0,69,0.00,,,0.00,meteohub,2013-03-04 12:42:00,
2013-03-04 06:44:00,55.8,45.7,-100.00,SSW,209,10.0,29.0,69,0.00,,,0.00,meteohub,2013-03-04 12:44:00,
2013-03-04 06:45:00,55.8,45.7,-100.00,SSW,202,24.0,28.0,69,0.00,,,0.00,meteohub,2013-03-04 12:45:00,
2013-03-04 06:46:00,55.8,46.0,-100.00,SW,219,15.0,28.0,70,0.00,,,0.00,meteohub,2013-03-04 12:46:00,
2013-03-04 06:47:00,55.8,46.0,-100.00,SSW,210,14.0,28.0,70,0.00,,,0.00,meteohub,2013-03-04 12:47:00,
2013-03-04 06:50:00,55.8,45.0,-100.00,SSW,209,13.0,28.0,67,0.00,,,0.00,meteohub,2013-03-04 12:50:00,
2013-03-04 06:52:00,55.8,46.0,-100.00,SSW,194,16.0,28.0,70,0.00,,,0.00,meteohub,2013-03-04 12:52:00,
2013-03-04 06:53:00,55.8,46.0,-100.00,SSW,195,13.0,28.0,70,0.00,,,0.00,meteohub,2013-03-04 12:53:00,
2013-03-04 06:55:00,55.8,46.0,-100.00,SW,214,16.0,28.0,70,0.00,,,0.00,meteohub,2013-03-04 12:55:00,
2013-03-04 06:56:00,55.8,46.0,-100.00,South,186,17.0,28.0,70,0.00,,,0.00,meteohub,2013-03-04 12:56:00,
2013-03-04 06:58:00,55.9,46.2,-100.00,SSW,204,20.0,28.0,70,0.00,,,0.00,meteohub,2013-03-04 12:58:00,
2013-03-04 07:01:00,55.9,46.2,-100.00,WSW,254,14.0,28.0,70,0.00,,,0.00,meteohub,2013-03-04 13:01:00,
2013-03-04 07:03:00,55.9,46.2,-100.00,SSW,192,12.0,28.0,70,0.00,,,0.00,meteohub,2013-03-04 13:03:00,
2013-03-04 07:04:00,55.9,46.2,-100.00,SW,227,16.0,28.0,70,0.00,,,0.00,meteohub,2013-03-04 13:04:00,
2013-03-04 07:06:00,55.9,46.2,-100.00,SSW,207,22.0,28.0,70,0.00,,,0.00,meteohub,2013-03-04 13:06:00,
2013-03-04 07:08:00,55.9,46.2,-100.00,South,187,9.0,28.0,70,0.00,,,0.00,meteohub,2013-03-04 13:08:00,
2013-03-04 07:09:00,55.9,46.2,-100.00,SSW,207,26.0,28.0,70,0.00,,,0.00,meteohub,2013-03-04 13:09:00,
2013-03-04 07:11:00,55.9,46.2,-100.00,SSW,196,13.0,28.0,70,0.00,,,0.00,meteohub,2013-03-04 13:11:00,
2013-03-04 07:13:00,55.9,46.8,-100.00,SSW,202,18.0,28.0,71,0.00,,,0.00,meteohub,2013-03-04 13:13:00,
2013-03-04 07:14:00,55.9,46.8,-100.00,SSW,211,17.0,28.0,71,0.00,,,0.00,meteohub,2013-03-04 13:14:00,
2013-03-04 07:16:00,55.9,46.8,-100.00,SW,216,17.0,28.0,71,0.00,,,0.00,meteohub,2013-03-04 13:16:00,
2013-03-04 07:18:00,56.1,46.8,-100.00,SSW,209,17.0,28.0,71,0.00,,,0.00,meteohub,2013-03-04 13:18:00,
2013-03-04 07:19:00,56.1,46.4,-100.00,SSW,200,4.0,28.0,70,0.00,,,0.00,meteohub,2013-03-04 13:19:00,
2013-03-04 07:21:00,56.1,46.8,-100.00,SSW,208,14.0,26.0,71,0.00,,,0.00,meteohub,2013-03-04 13:21:00,
2013-03-04 07:23:00,56.1,46.8,-100.00,SSW,212,23.0,26.0,71,0.00,,,0.00,meteohub,2013-03-04 13:23:00,
2013-03-04 07:24:00,56.1,46.8,-100.00,SSW,193,15.0,26.0,71,0.00,,,0.00,meteohub,2013-03-04 13:24:00,
2013-03-04 07:26:00,56.1,46.8,-100.00,SSW,200,15.0,26.0,71,0.00,,,0.00,meteohub,2013-03-04 13:26:00,
2013-03-04 07:28:00,56.1,46.8,-100.00,SSW,205,11.0,26.0,71,0.00,,,0.00,meteohub,2013-03-04 13:28:00,
2013-03-04 07:29:00,56.1,46.8,-100.00,South,182,9.0,26.0,71,0.00,,,0.00,meteohub,2013-03-04 13:29:00,
2013-03-04 07:31:00,56.1,46.8,-100.00,SSW,211,18.0,26.0,71,0.00,,,0.00,meteohub,2013-03-04 13:31:00,
2013-03-04 07:32:00,56.1,46.8,-100.00,South,179,13.0,26.0,71,0.00,,,0.00,meteohub,2013-03-04 13:32:00,
2013-03-04 07:33:00,56.3,46.9,-100.00,SW,215,10.0,26.0,71,0.00,,,0.00,meteohub,2013-03-04 13:33:00,
2013-03-04 07:35:00,56.3,46.9,-100.00,SSW,200,17.0,26.0,71,0.00,,,0.00,meteohub,2013-03-04 13:35:00,
2013-03-04 07:37:00,56.3,46.9,-100.00,SSW,198,12.0,26.0,71,0.00,,,0.00,meteohub,2013-03-04 13:37:00,
2013-03-04 07:38:00,56.3,46.9,-100.00,SSW,207,19.0,26.0,71,0.00,,,0.00,meteohub,2013-03-04 13:38:00,
2013-03-04 07:39:00,56.3,46.9,-100.00,South,182,16.0,26.0,71,0.00,,,0.00,meteohub,2013-03-04 13:39:00,
2013-03-04 07:40:00,56.3,46.9,-100.00,SW,216,12.0,28.0,71,0.00,,,0.00,meteohub,2013-03-04 13:40:00,
2013-03-04 07:42:00,56.3,46.9,-100.00,SW,219,19.0,28.0,71,0.00,,,0.00,meteohub,2013-03-04 13:42:00,
2013-03-04 07:43:00,56.3,46.9,-100.00,SSW,196,15.0,28.0,71,0.00,,,0.00,meteohub,2013-03-04 13:43:00,
2013-03-04 07:45:00,56.3,46.9,-100.00,SSW,202,16.0,28.0,71,0.00,,,0.00,meteohub,2013-03-04 13:45:00,
2013-03-04 07:48:00,56.3,46.9,-100.00,SSW,202,15.0,28.0,71,0.00,,,0.00,meteohub,2013-03-04 13:48:00,
2013-03-04 07:50:00,56.3,46.9,-100.00,South,190,12.0,28.0,71,0.00,,,0.00,meteohub,2013-03-04 13:50:00,
2013-03-04 07:53:00,56.3,46.9,-100.00,SSW,194,12.0,28.0,71,0.00,,,0.00,meteohub,2013-03-04 13:53:00,
2013-03-04 07:55:00,56.5,47.1,-100.00,South,173,11.0,28.0,71,0.00,,,0.00,meteohub,2013-03-04 13:55:00,
2013-03-04 07:56:00,56.5,47.1,-100.00,SSW,198,15.0,24.0,71,0.00,,,0.00,meteohub,2013-03-04 13:56:00,
2013-03-04 07:59:00,56.5,47.1,-100.00,SW,226,12.0,24.0,71,0.00,,,0.00,meteohub,2013-03-04 13:59:00,
2013-03-04 08:00:00,56.5,47.1,-100.00,SSW,200,7.0,24.0,71,0.00,,,0.00,meteohub,2013-03-04 14:00:00,
2013-03-04 08:01:00,56.5,47.1,-100.00,SSW,206,18.0,25.0,71,0.00,,,0.00,meteohub,2013-03-04 14:01:00,
2013-03-04 08:04:00,56.5,47.1,-100.00,South,189,11.0,25.0,71,0.00,,,0.00,meteohub,2013-03-04 14:04:00,
2013-03-04 08:05:00,56.5,47.1,-100.00,South,180,13.0,25.0,71,0.00,,,0.00,meteohub,2013-03-04 14:05:00,
2013-03-04 08:06:00,56.5,47.1,-100.00,SSW,202,15.0,25.0,71,0.00,,,0.00,meteohub,2013-03-04 14:06:00,
2013-03-04 08:09:00,56.7,47.3,-100.00,SSW,211,16.0,25.0,71,0.00,,,0.00,meteohub,2013-03-04 14:09:00,
2013-03-04 08:10:00,56.7,47.3,-100.00,SW,217,17.0,24.0,71,0.00,,,0.00,meteohub,2013-03-04 14:10:00,
2013-03-04 08:12:00,56.7,47.3,-100.00,SSW,192,6.0,24.0,71,0.00,,,0.00,meteohub,2013-03-04 14:12:00,
2013-03-04 08:15:00,56.8,47.1,-100.00,SSW,210,22.0,24.0,70,0.00,,,0.00,meteohub,2013-03-04 14:15:00,
2013-03-04 08:17:00,57.2,47.1,-100.00,SSW,200,16.0,26.0,69,0.00,,,0.00,meteohub,2013-03-04 14:17:00,
2013-03-04 08:20:00,57.6,48.2,-100.00,SSW,205,20.0,30.0,71,0.00,,,0.00,meteohub,2013-03-04 14:20:00,
2013-03-04 08:21:00,57.6,47.5,-100.00,SSW,207,14.0,30.0,69,0.00,,,0.00,meteohub,2013-03-04 14:21:00,
2013-03-04 08:22:00,57.6,47.5,-100.00,SSW,211,14.0,30.0,69,0.00,,,0.00,meteohub,2013-03-04 14:22:00,
2013-03-04 08:25:00,57.6,47.5,-100.00,SSW,196,16.0,30.0,69,0.00,,,0.00,meteohub,2013-03-04 14:25:00,
2013-03-04 08:26:00,57.7,47.7,-100.00,SW,215,24.0,30.0,69,0.00,,,0.00,meteohub,2013-03-04 14:26:00,
2013-03-04 08:27:00,57.7,47.3,-100.00,SSW,204,18.0,30.0,68,0.00,,,0.00,meteohub,2013-03-04 14:27:00,
2013-03-04 08:31:00,57.9,47.5,-100.00,SSW,192,18.0,30.0,68,0.00,,,0.00,meteohub,2013-03-04 14:31:00,
2013-03-04 08:32:00,58.1,47.7,-100.00,SSW,213,17.0,30.0,68,0.00,,,0.00,meteohub,2013-03-04 14:32:00,
2013-03-04 08:36:00,58.3,47.3,-100.00,SSW,204,18.0,29.0,67,0.00,,,0.00,meteohub,2013-03-04 14:36:00,
2013-03-04 08:37:00,58.3,47.3,-100.00,SSW,197,19.0,29.0,67,0.00,,,0.00,meteohub,2013-03-04 14:37:00,
2013-03-04 08:41:00,58.6,47.3,-100.00,SSW,194,14.0,29.0,66,0.00,,,0.00,meteohub,2013-03-04 14:41:00,
2013-03-04 08:42:00,58.6,47.3,-100.00,SSW,213,18.0,29.0,66,0.00,,,0.00,meteohub,2013-03-04 14:42:00,
2013-03-04 08:43:00,58.8,47.5,-100.00,SSW,209,17.0,29.0,66,0.00,,,0.00,meteohub,2013-03-04 14:43:00,
2013-03-04 08:46:00,59.2,47.5,-100.00,SSW,213,18.0,30.0,65,0.00,,,0.00,meteohub,2013-03-04 14:46:00,
2013-03-04 08:47:00,59.2,47.5,-100.00,SSW,197,12.0,30.0,65,0.00,,,0.00,meteohub,2013-03-04 14:47:00,
2013-03-04 08:48:00,59.4,47.7,-100.00,SW,216,26.0,30.0,65,0.00,,,0.00,meteohub,2013-03-04 14:48:00,
2013-03-04 08:51:00,59.4,47.7,-100.00,SSW,195,17.0,33.0,65,0.00,,,0.00,meteohub,2013-03-04 14:51:00,
2013-03-04 08:52:00,59.4,47.7,-100.00,SSW,196,15.0,33.0,65,0.00,,,0.00,meteohub,2013-03-04 14:52:00,
2013-03-04 08:53:00,59.5,47.8,-100.00,SSW,200,13.0,33.0,65,0.00,,,0.00,meteohub,2013-03-04 14:53:00,
2013-03-04 08:57:00,59.5,47.3,-100.00,SSW,204,23.0,33.0,64,0.00,,,0.00,meteohub,2013-03-04 14:57:00,
2013-03-04 08:58:00,59.5,47.3,-100.00,SSW,207,24.0,33.0,64,0.00,,,0.00,meteohub,2013-03-04 14:58:00,
2013-03-04 08:59:00,59.5,47.3,-100.00,SSW,209,17.0,33.0,64,0.00,,,0.00,meteohub,2013-03-04 14:59:00,
2013-03-04 09:02:00,59.5,47.3,-100.00,SW,217,22.0,33.0,64,0.00,,,0.00,meteohub,2013-03-04 15:02:00,
2013-03-04 09:03:00,59.5,47.3,-100.00,SSW,210,21.0,33.0,64,0.00,,,0.00,meteohub,2013-03-04 15:03:00,
2013-03-04 09:05:00,59.7,47.5,-100.00,SSW,200,13.0,33.0,64,0.00,,,0.00,meteohub,2013-03-04 15:05:00,
2013-03-04 09:07:00,59.9,47.3,-100.00,SSW,210,20.0,33.0,63,0.00,,,0.00,meteohub,2013-03-04 15:07:00,
2013-03-04 09:08:00,60.1,47.5,-100.00,SSW,204,14.0,33.0,63,0.00,,,0.00,meteohub,2013-03-04 15:08:00,
2013-03-04 09:10:00,60.3,47.7,-100.00,SSW,193,20.0,33.0,63,0.00,,,0.00,meteohub,2013-03-04 15:10:00,
2013-03-04 09:12:00,60.4,47.3,-100.00,SSW,202,18.0,31.0,62,0.00,,,0.00,meteohub,2013-03-04 15:12:00,
2013-03-04 09:13:00,60.4,47.3,-100.00,SW,236,13.0,31.0,62,0.00,,,0.00,meteohub,2013-03-04 15:13:00,
2013-03-04 09:15:00,61.0,47.8,-100.00,SW,217,11.0,30.0,62,0.00,,,0.00,meteohub,2013-03-04 15:15:00,
2013-03-04 09:17:00,61.0,47.5,-100.00,SW,217,18.0,30.0,61,0.00,,,0.00,meteohub,2013-03-04 15:17:00,
2013-03-04 09:18:00,61.2,47.7,-100.00,SSW,205,21.0,30.0,61,0.00,,,0.00,meteohub,2013-03-04 15:18:00,
2013-03-04 09:20:00,61.3,47.8,-100.00,SW,217,14.0,30.0,61,0.00,,,0.00,meteohub,2013-03-04 15:20:00,
2013-03-04 09:23:00,61.5,47.5,-100.00,SW,217,18.0,30.0,60,0.00,,,0.00,meteohub,2013-03-04 15:23:00,
2013-03-04 09:24:00,61.5,47.5,-100.00,SW,215,13.0,30.0,60,0.00,,,0.00,meteohub,2013-03-04 15:24:00,
2013-03-04 09:26:00,61.9,47.8,-100.00,SSW,207,13.0,26.0,60,0.00,,,0.00,meteohub,2013-03-04 15:26:00,
2013-03-04 09:28:00,61.9,47.5,-100.00,SSW,207,17.0,26.0,59,0.00,,,0.00,meteohub,2013-03-04 15:28:00,
2013-03-04 09:29:00,62.1,47.5,-100.00,SSW,211,11.0,26.0,59,0.00,,,0.00,meteohub,2013-03-04 15:29:00,
2013-03-04 09:31:00,62.2,47.7,-100.00,SSW,193,16.0,25.0,59,0.00,,,0.00,meteohub,2013-03-04 15:31:00,
2013-03-04 09:33:00,62.4,47.8,-100.00,WSW,242,16.0,25.0,59,0.00,,,0.00,meteohub,2013-03-04 15:33:00,
2013-03-04 09:34:00,62.6,47.7,-100.00,SSW,205,9.0,25.0,58,0.00,,,0.00,meteohub,2013-03-04 15:34:00,
2013-03-04 09:37:00,63.1,47.7,-100.00,SW,225,15.0,25.0,57,0.00,,,0.00,meteohub,2013-03-04 15:37:00,
2013-03-04 09:38:00,63.1,47.7,-100.00,SW,232,15.0,25.0,57,0.00,,,0.00,meteohub,2013-03-04 15:38:00,
2013-03-04 09:39:00,63.1,47.7,-100.00,SSW,193,12.0,25.0,57,0.00,,,0.00,meteohub,2013-03-04 15:39:00,
2013-03-04 09:40:00,63.3,47.8,-100.00,WSW,242,13.0,25.0,57,0.00,,,0.00,meteohub,2013-03-04 15:40:00,
2013-03-04 09:42:00,63.7,47.7,-100.00,SW,227,7.0,26.0,56,0.00,,,0.00,meteohub,2013-03-04 15:42:00,
2013-03-04 09:43:00,63.7,47.3,-100.00,SW,221,12.0,26.0,55,0.00,,,0.00,meteohub,2013-03-04 15:43:00,
2013-03-04 09:45:00,64.0,47.5,-100.00,SW,236,18.0,26.0,55,0.00,,,0.00,meteohub,2013-03-04 15:45:00,
2013-03-04 09:46:00,64.0,47.1,-100.00,SSW,203,23.0,29.0,54,0.00,,,0.00,meteohub,2013-03-04 15:46:00,
2013-03-04 09:47:00,64.0,46.6,-100.00,SSW,209,15.0,29.0,53,0.00,,,0.00,meteohub,2013-03-04 15:47:00,
2013-03-04 09:48:00,64.0,46.6,-100.00,SW,227,25.0,29.0,53,0.00,,,0.00,meteohub,2013-03-04 15:48:00,
2013-03-04 09:50:00,63.9,46.9,-100.00,NW,308,13.0,29.0,54,0.00,,,0.00,meteohub,2013-03-04 15:50:00,
2013-03-04 09:51:00,63.9,46.9,-100.00,SW,219,22.0,32.0,54,0.00,,,0.00,meteohub,2013-03-04 15:51:00,
2013-03-04 09:52:00,63.7,47.3,-100.00,SSW,205,20.0,32.0,55,0.00,,,0.00,meteohub,2013-03-04 15:52:00,
2013-03-04 09:54:00,63.3,46.4,-100.00,SSW,194,17.0,32.0,54,0.00,,,0.00,meteohub,2013-03-04 15:54:00,
2013-03-04 09:55:00,63.3,46.9,-100.00,SW,217,14.0,32.0,55,0.00,,,0.00,meteohub,2013-03-04 15:55:00,
2013-03-04 09:56:00,63.3,46.9,-100.00,SW,227,16.0,32.0,55,0.00,,,0.00,meteohub,2013-03-04 15:56:00,
2013-03-04 09:57:00,63.3,46.9,-100.00,SSW,213,13.0,32.0,55,0.00,,,0.00,meteohub,2013-03-04 15:57:00,
2013-03-04 10:00:00,63.1,46.8,-100.00,SSW,200,14.0,32.0,55,0.00,,,0.00,meteohub,2013-03-04 16:00:00,
2013-03-04 10:01:00,63.3,46.9,-100.00,SW,214,20.0,32.0,55,0.00,,,0.00,meteohub,2013-03-04 16:01:00,
2013-03-04 10:02:00,63.3,46.4,-100.00,SW,231,14.0,32.0,54,0.00,,,0.00,meteohub,2013-03-04 16:02:00,
2013-03-04 10:05:00,63.5,46.6,-100.00,SSW,199,19.0,32.0,54,0.00,,,0.00,meteohub,2013-03-04 16:05:00,
2013-03-04 10:07:00,63.7,46.8,-100.00,SW,227,14.0,31.0,54,0.00,,,0.00,meteohub,2013-03-04 16:07:00,
2013-03-04 10:10:00,64.6,47.1,-100.00,SW,226,14.0,28.0,53,0.00,,,0.00,meteohub,2013-03-04 16:10:00,
2013-03-04 10:11:00,64.6,47.1,-100.00,SW,214,19.0,28.0,53,0.00,,,0.00,meteohub,2013-03-04 16:11:00,
2013-03-04 10:12:00,64.8,47.3,-100.00,SW,223,11.0,28.0,53,0.00,,,0.00,meteohub,2013-03-04 16:12:00,
2013-03-04 10:15:00,65.3,47.3,-100.00,SSW,199,21.0,28.0,52,0.00,,,0.00,meteohub,2013-03-04 16:15:00,
2013-03-04 10:16:00,65.3,46.8,-100.00,SW,230,18.0,28.0,51,0.00,,,0.00,meteohub,2013-03-04 16:16:00,
2013-03-04 10:17:00,65.3,46.8,-100.00,SW,222,21.0,28.0,51,0.00,,,0.00,meteohub,2013-03-04 16:17:00,
2013-03-04 10:18:00,65.3,46.8,-100.00,SSW,204,19.0,28.0,51,0.00,,,0.00,meteohub,2013-03-04 16:18:00,
2013-03-04 10:21:00,64.9,46.4,-100.00,South,190,14.0,28.0,51,0.00,,,0.00,meteohub,2013-03-04 16:21:00,
2013-03-04 10:22:00,64.9,46.4,-100.00,SSW,212,18.0,28.0,51,0.00,,,0.00,meteohub,2013-03-04 16:22:00,
2013-03-04 10:23:00,64.9,46.9,-100.00,SSW,213,15.0,28.0,52,0.00,,,0.00,meteohub,2013-03-04 16:23:00,
2013-03-04 10:26:00,64.9,46.4,-100.00,SW,224,23.0,30.0,51,0.00,,,0.00,meteohub,2013-03-04 16:26:00,
2013-03-04 10:27:00,65.1,46.6,-100.00,SW,227,23.0,30.0,51,0.00,,,0.00,meteohub,2013-03-04 16:27:00,
2013-03-04 10:28:00,65.1,46.6,-100.00,SSW,204,14.0,30.0,51,0.00,,,0.00,meteohub,2013-03-04 16:28:00,
2013-03-04 10:32:00,65.1,46.0,-100.00,SSW,208,20.0,30.0,50,0.00,,,0.00,meteohub,2013-03-04 16:32:00,
2013-03-04 10:33:00,65.1,46.6,-100.00,SW,232,14.0,30.0,51,0.00,,,0.00,meteohub,2013-03-04 16:33:00,
2013-03-04 10:34:00,65.1,46.6,-100.00,SW,217,12.0,30.0,51,0.00,,,0.00,meteohub,2013-03-04 16:34:00,
2013-03-04 10:37:00,64.9,46.4,-100.00,SW,219,27.0,28.0,51,0.00,,,0.00,meteohub,2013-03-04 16:37:00,
2013-03-04 10:38:00,64.9,46.4,-100.00,SW,227,21.0,28.0,51,0.00,,,0.00,meteohub,2013-03-04 16:38:00,
2013-03-04 10:39:00,64.9,46.4,-100.00,SW,225,23.0,28.0,51,0.00,,,0.00,meteohub,2013-03-04 16:39:00,
2013-03-04 10:43:00,64.8,46.2,-100.00,SW,217,18.0,28.0,51,0.00,,,0.00,meteohub,2013-03-04 16:43:00,
2013-03-04 10:44:00,64.8,46.2,-100.00,SSW,212,17.0,28.0,51,0.00,,,0.00,meteohub,2013-03-04 16:44:00,
2013-03-04 10:48:00,64.8,46.8,-100.00,WSW,238,14.0,32.0,52,0.00,,,0.00,meteohub,2013-03-04 16:48:00,
2013-03-04 10:49:00,64.8,46.8,-100.00,WSW,239,12.0,32.0,52,0.00,,,0.00,meteohub,2013-03-04 16:49:00,
2013-03-04 10:53:00,64.8,46.2,-100.00,SW,234,20.0,32.0,51,0.00,,,0.00,meteohub,2013-03-04 16:53:00,
2013-03-04 10:55:00,64.8,46.2,-100.00,SW,217,15.0,32.0,51,0.00,,,0.00,meteohub,2013-03-04 16:55:00,
2013-03-04 10:58:00,64.8,46.2,-100.00,SSW,205,13.0,32.0,51,0.00,,,0.00,meteohub,2013-03-04 16:58:00,
2013-03-04 11:00:00,64.9,46.4,-100.00,SW,219,14.0,32.0,51,0.00,,,0.00,meteohub,2013-03-04 17:00:00,
2013-03-04 11:03:00,64.9,45.9,-100.00,SW,223,18.0,24.0,50,0.00,,,0.00,meteohub,2013-03-04 17:03:00,
2013-03-04 11:04:00,65.1,46.0,-100.00,SW,229,12.0,24.0,50,0.00,,,0.00,meteohub,2013-03-04 17:04:00,
2013-03-04 11:05:00,65.1,46.6,-100.00,SW,231,9.0,25.0,51,0.00,,,0.00,meteohub,2013-03-04 17:05:00,
2013-03-04 11:08:00,65.5,46.4,-100.00,SSW,212,15.0,25.0,50,0.00,,,0.00,meteohub,2013-03-04 17:08:00,
2013-03-04 11:09:00,65.5,46.4,-100.00,SW,221,14.0,25.0,50,0.00,,,0.00,meteohub,2013-03-04 17:09:00,
2013-03-04 11:10:00,65.7,46.6,-100.00,SW,230,13.0,25.0,50,0.00,,,0.00,meteohub,2013-03-04 17:10:00,
2013-03-04 11:13:00,66.4,46.6,-100.00,SSW,212,24.0,25.0,49,0.00,,,0.00,meteohub,2013-03-04 17:13:00,
2013-03-04 11:14:00,66.4,46.6,-100.00,SW,216,18.0,25.0,49,0.00,,,0.00,meteohub,2013-03-04 17:14:00,
2013-03-04 11:15:00,66.4,46.6,-100.00,WSW,245,14.0,25.0,49,0.00,,,0.00,meteohub,2013-03-04 17:15:00,
2013-03-04 11:19:00,67.1,46.2,-100.00,SW,223,28.0,28.0,47,0.00,,,0.00,meteohub,2013-03-04 17:19:00,
2013-03-04 11:20:00,67.1,45.7,-100.00,SW,215,17.0,25.0,46,0.00,,,0.00,meteohub,2013-03-04 17:20:00,
2013-03-04 11:21:00,67.1,45.7,-100.00,SW,215,12.0,25.0,46,0.00,,,0.00,meteohub,2013-03-04 17:21:00,
2013-03-04 11:24:00,67.3,46.4,-100.00,SSW,193,10.0,25.0,47,0.00,,,0.00,meteohub,2013-03-04 17:24:00,
2013-03-04 11:25:00,67.3,45.9,-100.00,SW,215,11.0,25.0,46,0.00,,,0.00,meteohub,2013-03-04 17:25:00,
2013-03-04 11:26:00,67.3,45.9,-100.00,SW,214,16.0,28.0,46,0.00,,,0.00,meteohub,2013-03-04 17:26:00,
2013-03-04 11:29:00,67.1,45.7,-100.00,SW,215,16.0,28.0,46,0.00,,,0.00,meteohub,2013-03-04 17:29:00,
2013-03-04 11:30:00,67.1,45.7,-100.00,SW,225,18.0,28.0,46,0.00,,,0.00,meteohub,2013-03-04 17:30:00,
2013-03-04 11:31:00,67.3,45.9,-100.00,SSW,204,18.0,28.0,46,0.00,,,0.00,meteohub,2013-03-04 17:31:00,
2013-03-04 11:34:00,67.8,46.2,-100.00,SW,216,15.0,28.0,46,0.00,,,0.00,meteohub,2013-03-04 17:34:00,
2013-03-04 11:35:00,68.2,46.6,-100.00,SW,223,22.0,25.0,46,0.00,,,0.00,meteohub,2013-03-04 17:35:00,
2013-03-04 11:36:00,68.2,46.6,-100.00,SW,215,14.0,25.0,46,0.00,,,0.00,meteohub,2013-03-04 17:36:00,
2013-03-04 11:40:00,68.9,46.0,-100.00,SSW,202,12.0,25.0,44,0.00,,,0.00,meteohub,2013-03-04 17:40:00,
2013-03-04 11:41:00,69.1,45.7,-100.00,SSW,203,15.0,29.0,43,0.00,,,0.00,meteohub,2013-03-04 17:41:00,
2013-03-04 11:42:00,69.1,45.7,-100.00,SW,233,15.0,29.0,43,0.00,,,0.00,meteohub,2013-03-04 17:42:00,
2013-03-04 11:45:00,69.3,45.9,-100.00,SW,217,12.0,29.0,43,0.00,,,0.00,meteohub,2013-03-04 17:45:00,
2013-03-04 11:46:00,69.3,45.9,-100.00,SW,235,12.0,29.0,43,0.00,,,0.00,meteohub,2013-03-04 17:46:00,
2013-03-04 11:47:00,69.4,46.0,-100.00,SSW,207,11.0,29.0,43,0.00,,,0.00,meteohub,2013-03-04 17:47:00,
2013-03-04 11:51:00,69.6,45.5,-100.00,SW,224,17.0,29.0,42,0.00,,,0.00,meteohub,2013-03-04 17:51:00,
2013-03-04 11:52:00,69.8,45.7,-100.00,SSW,213,15.0,29.0,42,0.00,,,0.00,meteohub,2013-03-04 17:52:00,
2013-03-04 11:56:00,70.5,45.0,-100.00,SW,223,17.0,27.0,40,0.00,,,0.00,meteohub,2013-03-04 17:56:00,
2013-03-04 11:57:00,70.5,45.0,-100.00,SW,221,22.0,27.0,40,0.00,,,0.00,meteohub,2013-03-04 17:57:00,
2013-03-04 12:01:00,71.2,45.7,-100.00,SSW,209,15.0,27.0,40,0.00,,,0.00,meteohub,2013-03-04 18:01:00,
2013-03-04 12:02:00,71.2,45.7,-100.00,SW,221,13.0,27.0,40,0.00,,,0.00,meteohub,2013-03-04 18:02:00,
2013-03-04 12:03:00,71.4,45.1,-100.00,SW,215,16.0,27.0,39,0.00,,,0.00,meteohub,2013-03-04 18:03:00,
2013-03-04 12:06:00,72.0,45.0,-100.00,SW,221,11.0,27.0,38,0.00,,,0.00,meteohub,2013-03-04 18:06:00,
2013-03-04 12:07:00,72.0,45.0,-100.00,SSW,194,12.0,27.0,38,0.00,,,0.00,meteohub,2013-03-04 18:07:00,
2013-03-04 12:08:00,72.1,45.1,-100.00,SW,225,12.0,27.0,38,0.00,,,0.00,meteohub,2013-03-04 18:08:00,
2013-03-04 12:11:00,72.5,44.8,-100.00,SSW,205,16.0,27.0,37,0.00,,,0.00,meteohub,2013-03-04 18:11:00,
2013-03-04 12:12:00,72.7,45.0,-100.00,SSW,210,17.0,27.0,37,0.00,,,0.00,meteohub,2013-03-04 18:12:00,
2013-03-04 12:13:00,72.7,45.0,-100.00,SW,225,12.0,27.0,37,0.00,,,0.00,meteohub,2013-03-04 18:13:00,
2013-03-04 12:14:00,72.9,45.1,-100.00,SW,225,17.0,27.0,37,0.00,,,0.00,meteohub,2013-03-04 18:14:00,
2013-03-04 12:17:00,73.2,45.3,-100.00,SW,219,14.0,27.0,37,0.00,,,0.00,meteohub,2013-03-04 18:17:00,
2013-03-04 12:18:00,73.2,45.3,-100.00,SW,223,16.0,27.0,37,0.00,,,0.00,meteohub,2013-03-04 18:18:00,
2013-03-04 12:20:00,73.6,45.7,-100.00,SW,223,19.0,27.0,37,0.00,,,0.00,meteohub,2013-03-04 18:20:00,
2013-03-04 12:22:00,73.9,44.6,-100.00,SW,224,9.0,27.0,35,0.00,,,0.00,meteohub,2013-03-04 18:22:00,
2013-03-04 12:23:00,73.9,44.6,-100.00,SW,214,7.0,27.0,35,0.00,,,0.00,meteohub,2013-03-04 18:23:00,
2013-03-04 12:25:00,74.5,44.2,-100.00,SSW,211,16.0,27.0,34,0.00,,,0.00,meteohub,2013-03-04 18:25:00,
2013-03-04 12:27:00,74.5,43.5,-100.00,SW,214,10.0,27.0,33,0.00,,,0.00,meteohub,2013-03-04 18:27:00,
2013-03-04 12:28:00,74.5,44.2,-100.00,SW,220,13.0,27.0,34,0.00,,,0.00,meteohub,2013-03-04 18:28:00,
2013-03-04 12:29:00,74.5,44.2,-100.00,SSW,211,20.0,27.0,34,0.00,,,0.00,meteohub,2013-03-04 18:29:00,
2013-03-04 12:30:00,74.5,43.5,-100.00,SW,227,23.0,27.0,33,0.00,,,0.00,meteohub,2013-03-04 18:30:00,
2013-03-04 12:34:00,74.7,43.7,-100.00,WSW,244,7.0,27.0,33,0.00,,,0.00,meteohub,2013-03-04 18:34:00,
2013-03-04 12:35:00,74.8,44.6,-100.00,WSW,251,4.0,25.0,34,0.00,,,0.00,meteohub,2013-03-04 18:35:00,
2013-03-04 12:40:00,75.6,42.8,-100.00,WSW,238,21.0,25.0,31,0.00,,,0.00,meteohub,2013-03-04 18:40:00,
2013-03-04 12:41:00,75.6,43.7,-100.00,SW,222,18.0,29.0,32,0.00,,,0.00,meteohub,2013-03-04 18:41:00,
2013-03-04 12:45:00,76.1,43.3,-100.00,SSW,206,17.0,29.0,31,0.00,,,0.00,meteohub,2013-03-04 18:45:00,
2013-03-04 12:46:00,76.1,43.3,-100.00,SW,219,15.0,29.0,31,0.00,,,0.00,meteohub,2013-03-04 18:46:00,
2013-03-04 12:47:00,76.3,42.6,-100.00,SSW,200,17.0,29.0,30,0.00,,,0.00,meteohub,2013-03-04 18:47:00,
2013-03-04 12:50:00,76.5,42.8,-100.00,SW,215,20.0,29.0,30,0.00,,,0.00,meteohub,2013-03-04 18:50:00,
2013-03-04 12:51:00,76.5,42.8,-100.00,SSW,195,17.0,29.0,30,0.00,,,0.00,meteohub,2013-03-04 18:51:00,
2013-03-04 12:52:00,76.5,41.9,-100.00,SSW,211,14.0,29.0,29,0.00,,,0.00,meteohub,2013-03-04 18:52:00,
2013-03-04 12:55:00,76.8,42.1,-100.00,SSW,195,13.0,25.0,29,0.00,,,0.00,meteohub,2013-03-04 18:55:00,
2013-03-04 12:56:00,76.8,42.1,-100.00,South,174,9.0,25.0,29,0.00,,,0.00,meteohub,2013-03-04 18:56:00,
2013-03-04 12:57:00,77.0,42.3,-100.00,WSW,238,16.0,25.0,29,0.00,,,0.00,meteohub,2013-03-04 18:57:00,
2013-03-04 13:01:00,77.5,42.8,-100.00,SW,218,20.0,25.0,29,0.00,,,0.00,meteohub,2013-03-04 19:01:00,
2013-03-04 13:02:00,77.7,41.0,-100.00,SSW,196,18.0,25.0,27,0.00,,,0.00,meteohub,2013-03-04 19:02:00,
2013-03-04 13:06:00,77.5,41.9,-100.00,SW,234,14.0,26.0,28,0.00,,,0.00,meteohub,2013-03-04 19:06:00,
2013-03-04 13:07:00,77.5,41.9,-100.00,SW,236,16.0,26.0,28,0.00,,,0.00,meteohub,2013-03-04 19:07:00,
2013-03-04 13:11:00,77.2,41.5,-100.00,SW,215,19.0,27.0,28,0.00,,,0.00,meteohub,2013-03-04 19:11:00,
2013-03-04 13:12:00,77.0,41.4,-100.00,SSW,208,19.0,27.0,28,0.00,,,0.00,meteohub,2013-03-04 19:12:00,
2013-03-04 13:13:00,77.0,41.4,-100.00,SSW,210,9.0,27.0,28,0.00,,,0.00,meteohub,2013-03-04 19:13:00,
2013-03-04 13:16:00,77.0,41.4,-100.00,SW,224,12.0,27.0,28,0.00,,,0.00,meteohub,2013-03-04 19:16:00,
2013-03-04 13:17:00,76.8,40.3,-100.00,WSW,245,14.0,27.0,27,0.00,,,0.00,meteohub,2013-03-04 19:17:00,
2013-03-04 13:18:00,77.0,41.4,-100.00,SW,219,14.0,27.0,28,0.00,,,0.00,meteohub,2013-03-04 19:18:00,
2013-03-04 13:21:00,77.0,41.4,-100.00,SSW,207,19.0,28.0,28,0.00,,,0.00,meteohub,2013-03-04 19:21:00,
2013-03-04 13:22:00,77.2,41.5,-100.00,SW,222,11.0,28.0,28,0.00,,,0.00,meteohub,2013-03-04 19:22:00,
2013-03-04 13:23:00,77.2,41.5,-100.00,SSW,200,16.0,28.0,28,0.00,,,0.00,meteohub,2013-03-04 19:23:00,
2013-03-04 13:26:00,77.2,41.5,-100.00,WSW,249,17.0,28.0,28,0.00,,,0.00,meteohub,2013-03-04 19:26:00,
2013-03-04 13:27:00,77.2,41.5,-100.00,SW,216,17.0,28.0,28,0.00,,,0.00,meteohub,2013-03-04 19:27:00,
2013-03-04 13:28:00,77.2,41.5,-100.00,SSW,205,14.0,28.0,28,0.00,,,0.00,meteohub,2013-03-04 19:28:00,
2013-03-04 13:31:00,77.4,42.6,-100.00,SW,230,12.0,24.0,29,0.00,,,0.00,meteohub,2013-03-04 19:31:00,
2013-03-04 13:32:00,77.5,42.8,-100.00,SW,232,9.0,24.0,29,0.00,,,0.00,meteohub,2013-03-04 19:32:00,
2013-03-04 13:33:00,77.9,43.2,-100.00,WSW,246,10.0,24.0,29,0.00,,,0.00,meteohub,2013-03-04 19:33:00,
2013-03-04 13:37:00,78.3,42.4,-100.00,SSW,213,11.0,25.0,28,0.00,,,0.00,meteohub,2013-03-04 19:37:00,
2013-03-04 13:39:00,78.6,42.8,-100.00,SSW,192,11.0,25.0,28,0.00,,,0.00,meteohub,2013-03-04 19:39:00,
2013-03-04 13:42:00,79.0,41.2,-100.00,SW,223,16.0,25.0,26,0.00,,,0.00,meteohub,2013-03-04 19:42:00,
2013-03-04 13:43:00,79.0,41.2,-100.00,WSW,255,14.0,25.0,26,0.00,,,0.00,meteohub,2013-03-04 19:43:00,
2013-03-04 13:44:00,79.2,41.4,-100.00,SW,220,13.0,25.0,26,0.00,,,0.00,meteohub,2013-03-04 19:44:00,
2013-03-04 13:47:00,79.9,43.0,-100.00,SW,221,11.0,25.0,27,0.00,,,0.00,meteohub,2013-03-04 19:47:00,
2013-03-04 13:48:00,79.9,43.0,-100.00,SW,223,17.0,25.0,27,0.00,,,0.00,meteohub,2013-03-04 19:48:00,
2013-03-04 13:49:00,80.1,42.1,-100.00,WSW,238,5.0,25.0,26,0.00,,,0.00,meteohub,2013-03-04 19:49:00,
2013-03-04 13:53:00,80.2,40.1,-100.00,SSW,206,20.0,25.0,24,0.00,,,0.00,meteohub,2013-03-04 19:53:00,
2013-03-04 13:55:00,80.4,40.3,-100.00,SSW,192,9.0,25.0,24,0.00,,,0.00,meteohub,2013-03-04 19:55:00,
2013-03-04 13:58:00,80.8,39.6,-100.00,WSW,246,6.0,24.0,23,0.00,,,0.00,meteohub,2013-03-04 19:58:00,
2013-03-04 14:00:00,81.0,39.7,-100.00,SW,225,7.0,24.0,23,0.00,,,0.00,meteohub,2013-03-04 20:00:00,
2013-03-04 14:03:00,81.1,39.7,-100.00,West,260,3.0,24.0,23,0.00,,,0.00,meteohub,2013-03-04 20:03:00,
2013-03-04 14:05:00,81.1,39.7,-100.00,SW,229,17.0,24.0,23,0.00,,,0.00,meteohub,2013-03-04 20:05:00,
2013-03-04 14:08:00,81.3,38.8,-100.00,SW,236,6.0,21.0,22,0.00,,,0.00,meteohub,2013-03-04 20:08:00,
2013-03-04 14:10:00,81.7,39.2,-100.00,SW,225,15.0,21.0,22,0.00,,,0.00,meteohub,2013-03-04 20:10:00,
2013-03-04 14:13:00,81.7,40.3,-100.00,SW,219,10.0,24.0,23,0.00,,,0.00,meteohub,2013-03-04 20:13:00,
2013-03-04 14:14:00,81.7,40.3,-100.00,SW,221,15.0,24.0,23,0.00,,,0.00,meteohub,2013-03-04 20:14:00,
2013-03-04 14:16:00,81.9,39.2,-100.00,SW,228,3.0,24.0,22,0.00,,,0.00,meteohub,2013-03-04 20:16:00,
2013-03-04 14:19:00,82.4,38.5,-100.00,SSW,213,20.0,24.0,21,0.00,,,0.00,meteohub,2013-03-04 20:19:00,
2013-03-04 14:21:00,82.4,38.5,-100.00,SW,225,18.0,25.0,21,0.00,,,0.00,meteohub,2013-03-04 20:21:00,
2013-03-04 14:24:00,82.6,38.7,-100.00,SW,223,14.0,25.0,21,0.00,,,0.00,meteohub,2013-03-04 20:24:00,
2013-03-04 14:26:00,82.8,38.8,-100.00,SW,217,10.0,30.0,21,0.00,,,0.00,meteohub,2013-03-04 20:26:00,
2013-03-04 14:29:00,83.1,41.5,-100.00,SSW,200,17.0,30.0,23,0.00,,,0.00,meteohub,2013-03-04 20:29:00,
2013-03-04 14:30:00,83.1,41.5,-100.00,South,190,10.0,30.0,23,0.00,,,0.00,meteohub,2013-03-04 20:30:00,
2013-03-04 14:31:00,82.9,41.4,-100.00,SSW,213,17.0,30.0,23,0.00,,,0.00,meteohub,2013-03-04 20:31:00,
2013-03-04 14:35:00,82.8,41.2,-100.00,South,189,13.0,30.0,23,0.00,,,0.00,meteohub,2013-03-04 20:35:00,
2013-03-04 14:36:00,82.8,41.2,-100.00,SSW,209,14.0,30.0,23,0.00,,,0.00,meteohub,2013-03-04 20:36:00,
2013-03-04 14:37:00,82.8,41.2,-100.00,SSW,194,11.0,30.0,23,0.00,,,0.00,meteohub,2013-03-04 20:37:00,
2013-03-04 14:40:00,82.9,40.1,-100.00,WSW,238,15.0,28.0,22,0.00,,,0.00,meteohub,2013-03-04 20:40:00,
2013-03-04 14:41:00,83.1,40.3,-100.00,SW,225,14.0,28.0,22,0.00,,,0.00,meteohub,2013-03-04 20:41:00,
2013-03-04 14:42:00,83.1,39.2,-100.00,SSW,208,21.0,28.0,21,0.00,,,0.00,meteohub,2013-03-04 20:42:00,
2013-03-04 14:45:00,83.5,39.4,-100.00,SSW,209,16.0,28.0,21,0.00,,,0.00,meteohub,2013-03-04 20:45:00,
2013-03-04 14:46:00,83.5,39.4,-100.00,SW,223,15.0,28.0,21,0.00,,,0.00,meteohub,2013-03-04 20:46:00,
2013-03-04 14:47:00,83.5,39.4,-100.00,SSW,205,13.0,28.0,21,0.00,,,0.00,meteohub,2013-03-04 20:47:00,
2013-03-04 14:51:00,83.7,39.6,-100.00,SSW,208,23.0,24.0,21,0.00,,,0.00,meteohub,2013-03-04 20:51:00,
2013-03-04 14:52:00,83.7,39.6,-100.00,SSW,201,16.0,24.0,21,0.00,,,0.00,meteohub,2013-03-04 20:52:00,
2013-03-04 14:53:00,83.7,39.6,-100.00,SSW,209,17.0,24.0,21,0.00,,,0.00,meteohub,2013-03-04 20:53:00,
2013-03-04 14:56:00,83.8,39.7,-100.00,SW,227,16.0,26.0,21,0.00,,,0.00,meteohub,2013-03-04 20:56:00,
2013-03-04 14:57:00,83.8,42.1,-100.00,SSW,194,7.0,26.0,23,0.00,,,0.00,meteohub,2013-03-04 20:57:00,
2013-03-04 14:58:00,83.8,42.1,-100.00,SW,221,11.0,26.0,23,0.00,,,0.00,meteohub,2013-03-04 20:58:00,
2013-03-04 15:02:00,83.5,43.9,-100.00,SW,229,15.0,26.0,25,0.00,,,0.00,meteohub,2013-03-04 21:02:00,
2013-03-04 15:03:00,83.1,43.7,-100.00,SSW,207,13.0,26.0,25,0.00,,,0.00,meteohub,2013-03-04 21:03:00,
2013-03-04 15:07:00,82.9,44.6,-100.00,SSW,213,9.0,26.0,26,0.00,,,0.00,meteohub,2013-03-04 21:07:00,
2013-03-04 15:08:00,82.9,44.6,-100.00,SW,216,17.0,26.0,26,0.00,,,0.00,meteohub,2013-03-04 21:08:00,
2013-03-04 15:12:00,82.8,44.4,-100.00,SSW,209,10.0,24.0,26,0.00,,,0.00,meteohub,2013-03-04 21:12:00,
2013-03-04 15:13:00,82.6,45.1,-100.00,SSW,200,18.0,24.0,27,0.00,,,0.00,meteohub,2013-03-04 21:13:00,
2013-03-04 15:15:00,82.4,46.0,-100.00,SW,214,23.0,24.0,28,0.00,,,0.00,meteohub,2013-03-04 21:15:00,
2013-03-04 15:17:00,82.2,45.9,-100.00,SSW,211,18.0,24.0,28,0.00,,,0.00,meteohub,2013-03-04 21:17:00,
2013-03-04 15:18:00,82.0,44.8,-100.00,SSW,209,22.0,24.0,27,0.00,,,0.00,meteohub,2013-03-04 21:18:00,
2013-03-04 15:21:00,81.7,45.3,-100.00,SSW,207,21.0,26.0,28,0.00,,,0.00,meteohub,2013-03-04 21:21:00,
2013-03-04 15:22:00,81.7,45.3,-100.00,SSW,193,20.0,26.0,28,0.00,,,0.00,meteohub,2013-03-04 21:22:00,
2013-03-04 15:23:00,81.7,45.3,-100.00,SSW,212,27.0,27.0,28,0.00,,,0.00,meteohub,2013-03-04 21:23:00,
2013-03-04 15:27:00,81.3,45.1,-100.00,SSW,212,29.0,29.0,28,0.00,,,0.00,meteohub,2013-03-04 21:27:00,
2013-03-04 15:28:00,81.1,45.0,-100.00,SSW,196,16.0,27.0,28,0.00,,,0.00,meteohub,2013-03-04 21:28:00,
2013-03-04 15:29:00,81.1,45.9,-100.00,SSW,200,19.0,27.0,29,0.00,,,0.00,meteohub,2013-03-04 21:29:00,
2013-03-04 15:32:00,81.1,45.9,-100.00,SSW,202,13.0,29.0,29,0.00,,,0.00,meteohub,2013-03-04 21:32:00,
2013-03-04 15:33:00,81.1,45.9,-100.00,SSW,213,15.0,29.0,29,0.00,,,0.00,meteohub,2013-03-04 21:33:00,
2013-03-04 15:34:00,81.1,45.9,-100.00,SSW,204,19.0,29.0,29,0.00,,,0.00,meteohub,2013-03-04 21:34:00,
2013-03-04 15:37:00,81.1,45.9,-100.00,SSW,197,19.0,29.0,29,0.00,,,0.00,meteohub,2013-03-04 21:37:00,
2013-03-04 15:39:00,81.1,45.9,-100.00,SSW,194,19.0,29.0,29,0.00,,,0.00,meteohub,2013-03-04 21:39:00,
2013-03-04 15:40:00,81.1,46.8,-100.00,SW,217,16.0,29.0,30,0.00,,,0.00,meteohub,2013-03-04 21:40:00,
2013-03-04 15:42:00,81.1,46.8,-100.00,South,187,8.0,29.0,30,0.00,,,0.00,meteohub,2013-03-04 21:42:00,
2013-03-04 15:43:00,81.1,46.8,-100.00,South,182,17.0,29.0,30,0.00,,,0.00,meteohub,2013-03-04 21:43:00,
2013-03-04 15:44:00,81.1,46.8,-100.00,SSW,195,15.0,29.0,30,0.00,,,0.00,meteohub,2013-03-04 21:44:00,
2013-03-04 15:45:00,81.1,46.8,-100.00,SSW,207,11.0,27.0,30,0.00,,,0.00,meteohub,2013-03-04 21:45:00,
2013-03-04 15:48:00,81.1,46.8,-100.00,SSW,213,13.0,27.0,30,0.00,,,0.00,meteohub,2013-03-04 21:48:00,
2013-03-04 15:49:00,81.1,45.9,-100.00,SSW,213,17.0,27.0,29,0.00,,,0.00,meteohub,2013-03-04 21:49:00,
2013-03-04 15:50:00,81.1,45.9,-100.00,SW,225,13.0,27.0,29,0.00,,,0.00,meteohub,2013-03-04 21:50:00,
2013-03-04 15:53:00,81.1,45.0,-100.00,SSW,196,6.0,27.0,28,0.00,,,0.00,meteohub,2013-03-04 21:53:00,
2013-03-04 15:54:00,81.1,45.9,-100.00,SSW,195,10.0,27.0,29,0.00,,,0.00,meteohub,2013-03-04 21:54:00,
2013-03-04 15:55:00,81.1,45.0,-100.00,SSW,201,19.0,27.0,28,0.00,,,0.00,meteohub,2013-03-04 21:55:00,
2013-03-04 15:58:00,81.1,45.0,-100.00,SSW,195,16.0,27.0,28,0.00,,,0.00,meteohub,2013-03-04 21:58:00,
2013-03-04 15:59:00,81.1,45.0,-100.00,SW,227,15.0,27.0,28,0.00,,,0.00,meteohub,2013-03-04 21:59:00,
2013-03-04 16:00:00,81.0,45.7,-100.00,SSW,209,15.0,30.0,29,0.00,,,0.00,meteohub,2013-03-04 22:00:00,
2013-03-04 16:04:00,81.0,44.8,-100.00,SSW,193,18.0,30.0,28,0.00,,,0.00,meteohub,2013-03-04 22:04:00,
2013-03-04 16:05:00,81.0,44.8,-100.00,SW,217,15.0,30.0,28,0.00,,,0.00,meteohub,2013-03-04 22:05:00,
2013-03-04 16:06:00,81.0,44.8,-100.00,SW,216,17.0,30.0,28,0.00,,,0.00,meteohub,2013-03-04 22:06:00,
2013-03-04 16:09:00,81.0,46.6,-100.00,SSW,211,18.0,30.0,30,0.00,,,0.00,meteohub,2013-03-04 22:09:00,
2013-03-04 16:10:00,81.0,46.6,-100.00,SW,236,16.0,30.0,30,0.00,,,0.00,meteohub,2013-03-04 22:10:00,
2013-03-04 16:11:00,81.0,46.6,-100.00,South,178,10.0,30.0,30,0.00,,,0.00,meteohub,2013-03-04 22:11:00,
2013-03-04 16:14:00,81.1,46.8,-100.00,SSW,192,16.0,30.0,30,0.00,,,0.00,meteohub,2013-03-04 22:14:00,
2013-03-04 16:15:00,81.1,46.8,-100.00,SSW,207,14.0,30.0,30,0.00,,,0.00,meteohub,2013-03-04 22:15:00,
2013-03-04 16:16:00,81.1,45.9,-100.00,South,178,12.0,30.0,29,0.00,,,0.00,meteohub,2013-03-04 22:16:00,
2013-03-04 16:19:00,81.1,46.8,-100.00,SSW,207,17.0,30.0,30,0.00,,,0.00,meteohub,2013-03-04 22:19:00,
2013-03-04 16:20:00,81.0,46.6,-100.00,South,185,24.0,24.0,30,0.00,,,0.00,meteohub,2013-03-04 22:20:00,
2013-03-04 16:21:00,81.0,46.6,-100.00,SSW,194,14.0,24.0,30,0.00,,,0.00,meteohub,2013-03-04 22:21:00,
2013-03-04 16:22:00,80.8,46.4,-100.00,SSW,206,25.0,25.0,30,0.00,,,0.00,meteohub,2013-03-04 22:22:00,
2013-03-04 16:24:00,80.4,46.2,-100.00,SSW,200,15.0,24.0,30,0.00,,,0.00,meteohub,2013-03-04 22:24:00,
2013-03-04 16:25:00,80.2,46.0,-100.00,SSW,192,24.0,27.0,30,0.00,,,0.00,meteohub,2013-03-04 22:25:00,
2013-03-04 16:26:00,80.2,46.0,-100.00,SSW,196,21.0,27.0,30,0.00,,,0.00,meteohub,2013-03-04 22:26:00,
2013-03-04 16:27:00,80.2,46.0,-100.00,SSW,207,13.0,27.0,30,0.00,,,0.00,meteohub,2013-03-04 22:27:00,
2013-03-04 16:29:00,80.1,45.9,-100.00,SW,214,9.0,27.0,30,0.00,,,0.00,meteohub,2013-03-04 22:29:00,
2013-03-04 16:31:00,80.1,46.8,-100.00,SSW,198,10.0,28.0,31,0.00,,,0.00,meteohub,2013-03-04 22:31:00,
2013-03-04 16:32:00,80.1,46.8,-100.00,SSW,201,18.0,28.0,31,0.00,,,0.00,meteohub,2013-03-04 22:32:00,
2013-03-04 16:33:00,80.1,46.8,-100.00,SSW,211,12.0,28.0,31,0.00,,,0.00,meteohub,2013-03-04 22:33:00,
2013-03-04 16:35:00,80.1,46.8,-100.00,South,183,11.0,28.0,31,0.00,,,0.00,meteohub,2013-03-04 22:35:00,
2013-03-04 16:37:00,79.9,46.6,-100.00,SW,225,20.0,28.0,31,0.00,,,0.00,meteohub,2013-03-04 22:37:00,
2013-03-04 16:38:00,79.9,46.6,-100.00,SSE,165,16.0,28.0,31,0.00,,,0.00,meteohub,2013-03-04 22:38:00,
2013-03-04 16:40:00,79.5,47.1,-100.00,SSW,193,18.0,28.0,32,0.00,,,0.00,meteohub,2013-03-04 22:40:00,
2013-03-04 16:42:00,79.3,46.9,-100.00,South,190,13.0,28.0,32,0.00,,,0.00,meteohub,2013-03-04 22:42:00,
2013-03-04 16:43:00,79.2,46.8,-100.00,SSW,203,17.0,28.0,32,0.00,,,0.00,meteohub,2013-03-04 22:43:00,
2013-03-04 16:45:00,79.0,47.5,-100.00,SSW,201,16.0,28.0,33,0.00,,,0.00,meteohub,2013-03-04 22:45:00,
2013-03-04 16:48:00,79.0,47.5,-100.00,SSE,156,10.0,28.0,33,0.00,,,0.00,meteohub,2013-03-04 22:48:00,
2013-03-04 16:51:00,79.0,47.5,-100.00,SSW,200,13.0,28.0,33,0.00,,,0.00,meteohub,2013-03-04 22:51:00,
2013-03-04 16:53:00,78.8,47.3,-100.00,SSW,194,16.0,28.0,33,0.00,,,0.00,meteohub,2013-03-04 22:53:00,
2013-03-04 16:54:00,78.8,47.3,-100.00,SSW,192,13.0,28.0,33,0.00,,,0.00,meteohub,2013-03-04 22:54:00,
2013-03-04 16:56:00,78.8,48.0,-100.00,South,190,13.0,25.0,34,0.00,,,0.00,meteohub,2013-03-04 22:56:00,
2013-03-04 16:59:00,78.6,47.8,-100.00,South,182,11.0,25.0,34,0.00,,,0.00,meteohub,2013-03-04 22:59:00,
2013-03-04 17:02:00,78.6,47.1,-100.00,SSW,193,10.0,22.0,33,0.00,,,0.00,meteohub,2013-03-04 23:02:00,
2013-03-04 17:04:00,78.6,47.1,-100.00,South,170,13.0,22.0,33,0.00,,,0.00,meteohub,2013-03-04 23:04:00,
2013-03-04 17:07:00,78.4,47.7,-100.00,SSW,193,7.0,22.0,34,0.00,,,0.00,meteohub,2013-03-04 23:07:00,
2013-03-04 17:09:00,78.4,47.7,-100.00,South,190,13.0,22.0,34,0.00,,,0.00,meteohub,2013-03-04 23:09:00,
2013-03-04 17:12:00,78.3,47.7,-100.00,South,186,10.0,24.0,34,0.00,,,0.00,meteohub,2013-03-04 23:12:00,
2013-03-04 17:14:00,78.3,47.7,-100.00,SSW,202,11.0,24.0,34,0.00,,,0.00,meteohub,2013-03-04 23:14:00,
2013-03-04 17:15:00,78.1,47.5,-100.00,SSW,202,20.0,24.0,34,0.00,,,0.00,meteohub,2013-03-04 23:15:00,
2013-03-04 17:17:00,77.9,47.3,-100.00,SSW,198,22.0,24.0,34,0.00,,,0.00,meteohub,2013-03-04 23:17:00,
2013-03-04 17:19:00,77.7,47.1,-100.00,SSW,205,7.0,24.0,34,0.00,,,0.00,meteohub,2013-03-04 23:19:00,
2013-03-04 17:20:00,77.7,47.1,-100.00,SSW,205,14.0,24.0,34,0.00,,,0.00,meteohub,2013-03-04 23:20:00,
2013-03-04 17:23:00,77.4,46.8,-100.00,SW,217,17.0,24.0,34,0.00,,,0.00,meteohub,2013-03-04 23:23:00,
2013-03-04 17:24:00,77.4,46.8,-100.00,South,175,16.0,24.0,34,0.00,,,0.00,meteohub,2013-03-04 23:24:00,
2013-03-04 17:25:00,77.2,46.6,-100.00,SSW,201,13.0,24.0,34,0.00,,,0.00,meteohub,2013-03-04 23:25:00,
2013-03-04 17:29:00,76.8,46.4,-100.00,SSW,198,20.0,24.0,34,0.00,,,0.00,meteohub,2013-03-04 23:29:00,
2013-03-04 17:31:00,76.8,46.4,-100.00,SW,214,11.0,24.0,34,0.00,,,0.00,meteohub,2013-03-04 23:31:00,
2013-03-04 17:34:00,76.6,46.2,-100.00,SW,216,16.0,24.0,34,0.00,,,0.00,meteohub,2013-03-04 23:34:00,
2013-03-04 17:36:00,76.5,46.0,-100.00,SSW,198,12.0,24.0,34,0.00,,,0.00,meteohub,2013-03-04 23:36:00,
2013-03-04 17:37:00,76.5,46.0,-100.00,SSW,196,12.0,24.0,34,0.00,,,0.00,meteohub,2013-03-04 23:37:00,
2013-03-04 17:39:00,76.5,46.0,-100.00,SSW,203,16.0,24.0,34,0.00,,,0.00,meteohub,2013-03-04 23:39:00,
2013-03-04 17:41:00,76.5,45.1,-100.00,SSW,211,17.0,26.0,33,0.00,,,0.00,meteohub,2013-03-04 23:41:00,
2013-03-04 17:42:00,76.5,45.1,-100.00,SSW,211,17.0,26.0,33,0.00,,,0.00,meteohub,2013-03-04 23:42:00,
2013-03-04 17:44:00,76.5,45.1,-100.00,SW,215,10.0,26.0,33,0.00,,,0.00,meteohub,2013-03-04 23:44:00,
2013-03-04 17:45:00,76.5,45.1,-100.00,SSW,196,7.0,26.0,33,0.00,,,0.00,meteohub,2013-03-04 23:45:00,
2013-03-04 17:46:00,76.3,45.1,-100.00,SSW,206,11.0,26.0,33,0.00,,,0.00,meteohub,2013-03-04 23:46:00,
2013-03-04 17:47:00,76.3,45.1,-100.00,South,189,16.0,26.0,33,0.00,,,0.00,meteohub,2013-03-04 23:47:00,
2013-03-04 17:49:00,76.3,45.1,-100.00,SSW,208,12.0,26.0,33,0.00,,,0.00,meteohub,2013-03-04 23:49:00,
2013-03-04 17:50:00,76.1,45.0,-100.00,SSW,192,12.0,26.0,33,0.00,,,0.00,meteohub,2013-03-04 23:50:00,
2013-03-04 17:51:00,76.1,45.0,-100.00,SSW,200,11.0,26.0,33,0.00,,,0.00,meteohub,2013-03-04 23:51:00,
2013-03-04 17:52:00,76.1,45.7,-100.00,SSW,199,5.0,26.0,34,0.00,,,0.00,meteohub,2013-03-04 23:52:00,
2013-03-04 17:54:00,75.7,45.3,-100.00,SSW,196,11.0,26.0,34,0.00,,,0.00,meteohub,2013-03-04 23:54:00,
2013-03-04 17:56:00,75.6,46.0,-100.00,SSW,203,15.0,21.0,35,0.00,,,0.00,meteohub,2013-03-04 23:56:00,
2013-03-04 17:57:00,75.4,45.9,-100.00,SSW,209,12.0,21.0,35,0.00,,,0.00,meteohub,2013-03-04 23:57:00,
2013-03-04 18:00:00,75.4,46.6,-100.00,SSW,205,13.0,21.0,36,0.00,,,0.00,meteohub,2013-03-05 00:00:00,
2013-03-04 18:01:00,75.0,46.2,-100.00,SSW,205,12.0,21.0,36,0.00,,,0.00,meteohub,2013-03-05 00:01:00,
2013-03-04 18:02:00,75.0,46.2,-100.00,SSW,192,9.0,21.0,36,0.00,,,0.00,meteohub,2013-03-05 00:02:00,
2013-03-04 18:05:00,74.8,46.0,-100.00,SSW,201,10.0,21.0,36,0.00,,,0.00,meteohub,2013-03-05 00:05:00,
2013-03-04 18:06:00,74.7,45.9,-100.00,SSW,194,15.0,21.0,36,0.00,,,0.00,meteohub,2013-03-05 00:06:00,
2013-03-04 18:07:00,74.7,46.6,-100.00,SSW,194,6.0,21.0,37,0.00,,,0.00,meteohub,2013-03-05 00:07:00,
2013-03-04 18:10:00,74.5,46.6,-100.00,SSW,196,9.0,21.0,37,0.00,,,0.00,meteohub,2013-03-05 00:10:00,
2013-03-04 18:11:00,74.1,46.2,-100.00,SSW,195,10.0,21.0,37,0.00,,,0.00,meteohub,2013-03-05 00:11:00,
2013-03-04 18:12:00,74.1,46.2,-100.00,South,190,8.0,21.0,37,0.00,,,0.00,meteohub,2013-03-05 00:12:00,
2013-03-04 18:13:00,73.9,46.8,-100.00,SSW,192,11.0,21.0,38,0.00,,,0.00,meteohub,2013-03-05 00:13:00,
2013-03-04 18:15:00,73.8,46.6,-100.00,SSW,195,5.0,21.0,38,0.00,,,0.00,meteohub,2013-03-05 00:15:00,
2013-03-04 18:17:00,73.6,47.1,-100.00,SSW,194,12.0,21.0,39,0.00,,,0.00,meteohub,2013-03-05 00:17:00,
2013-03-04 18:18:00,73.2,47.5,-100.00,South,186,5.0,21.0,40,0.00,,,0.00,meteohub,2013-03-05 00:18:00,
2013-03-04 18:21:00,73.0,48.6,-100.00,South,180,10.0,21.0,42,0.00,,,0.00,meteohub,2013-03-05 00:21:00,
2013-03-04 18:22:00,72.9,48.4,-100.00,SSE,168,8.0,21.0,42,0.00,,,0.00,meteohub,2013-03-05 00:22:00,
2013-03-04 18:23:00,72.9,48.4,-100.00,SSW,196,7.0,21.0,42,0.00,,,0.00,meteohub,2013-03-05 00:23:00,
2013-03-04 18:26:00,72.5,48.7,-100.00,South,185,9.0,17.0,43,0.00,,,0.00,meteohub,2013-03-05 00:26:00,
2013-03-04 18:27:00,72.3,48.6,-100.00,South,186,7.0,17.0,43,0.00,,,0.00,meteohub,2013-03-05 00:27:00,
2013-03-04 18:29:00,72.1,48.4,-100.00,South,184,5.0,17.0,43,0.00,,,0.00,meteohub,2013-03-05 00:29:00,
2013-03-04 18:31:00,72.0,48.2,-100.00,South,188,7.0,17.0,43,0.00,,,0.00,meteohub,2013-03-05 00:31:00,
2013-03-04 18:32:00,72.0,48.2,-100.00,South,188,9.0,17.0,43,0.00,,,0.00,meteohub,2013-03-05 00:32:00,
2013-03-04 18:33:00,71.8,48.0,-100.00,South,190,11.0,17.0,43,0.00,,,0.00,meteohub,2013-03-05 00:33:00,
2013-03-04 18:34:00,71.8,48.7,-100.00,South,175,11.0,17.0,44,0.00,,,0.00,meteohub,2013-03-05 00:34:00,
2013-03-04 18:36:00,71.6,48.6,-100.00,South,183,11.0,17.0,44,0.00,,,0.00,meteohub,2013-03-05 00:36:00,
2013-03-04 18:37:00,71.4,48.4,-100.00,South,184,5.0,17.0,44,0.00,,,0.00,meteohub,2013-03-05 00:37:00,
2013-03-04 18:38:00,71.4,48.4,-100.00,South,178,4.0,17.0,44,0.00,,,0.00,meteohub,2013-03-05 00:38:00,
2013-03-04 18:40:00,71.4,48.4,-100.00,South,184,4.0,17.0,44,0.00,,,0.00,meteohub,2013-03-05 00:40:00,
2013-03-04 18:41:00,71.2,48.7,-100.00,South,182,3.0,16.0,45,0.00,,,0.00,meteohub,2013-03-05 00:41:00,
2013-03-04 18:42:00,71.1,48.6,-100.00,South,175,7.0,16.0,45,0.00,,,0.00,meteohub,2013-03-05 00:42:00,
2013-03-04 18:43:00,71.1,48.6,-100.00,South,176,6.0,16.0,45,0.00,,,0.00,meteohub,2013-03-05 00:43:00,
2013-03-04 18:45:00,70.9,48.6,-100.00,South,173,3.0,16.0,45,0.00,,,0.00,meteohub,2013-03-05 00:45:00,
2013-03-04 18:46:00,70.9,48.6,-100.00,South,180,5.0,13.0,45,0.00,,,0.00,meteohub,2013-03-05 00:46:00,
2013-03-04 18:48:00,70.9,49.1,-100.00,SSE,167,6.0,13.0,46,0.00,,,0.00,meteohub,2013-03-05 00:48:00,
2013-03-04 18:50:00,70.3,48.6,-100.00,South,177,4.0,13.0,46,0.00,,,0.00,meteohub,2013-03-05 00:50:00,
2013-03-04 18:52:00,70.3,48.6,-100.00,South,184,4.0,13.0,46,0.00,,,0.00,meteohub,2013-03-05 00:52:00,
2013-03-04 18:53:00,70.3,49.1,-100.00,South,181,5.0,13.0,47,0.00,,,0.00,meteohub,2013-03-05 00:53:00,
2013-03-04 18:54:00,70.2,48.9,-100.00,South,180,4.0,13.0,47,0.00,,,0.00,meteohub,2013-03-05 00:54:00,
2013-03-04 18:55:00,70.2,48.9,-100.00,South,180,3.0,13.0,47,0.00,,,0.00,meteohub,2013-03-05 00:55:00,
2013-03-04 18:58:00,70.0,49.5,-100.00,South,174,5.0,13.0,48,0.00,,,0.00,meteohub,2013-03-05 00:58:00,
2013-03-04 18:59:00,69.8,49.3,-100.00,South,181,6.0,13.0,48,0.00,,,0.00,meteohub,2013-03-05 00:59:00,
2013-03-04 19:00:00,69.8,49.3,-100.00,South,186,7.0,13.0,48,0.00,,,0.00,meteohub,2013-03-05 01:00:00,
2013-03-04 19:03:00,69.6,49.1,-100.00,South,182,6.0,13.0,48,0.00,,,0.00,meteohub,2013-03-05 01:03:00,
2013-03-04 19:04:00,69.6,49.1,-100.00,SSE,167,14.0,14.0,48,0.00,,,0.00,meteohub,2013-03-05 01:04:00,
2013-03-04 19:05:00,69.6,49.1,-100.00,South,178,7.0,18.0,48,0.00,,,0.00,meteohub,2013-03-05 01:05:00,
2013-03-04 19:08:00,69.4,48.9,-100.00,South,178,6.0,18.0,48,0.00,,,0.00,meteohub,2013-03-05 01:08:00,
2013-03-04 19:09:00,69.4,48.9,-100.00,South,174,9.0,18.0,48,0.00,,,0.00,meteohub,2013-03-05 01:09:00,
2013-03-04 19:10:00,69.4,48.9,-100.00,South,180,6.0,18.0,48,0.00,,,0.00,meteohub,2013-03-05 01:10:00,
2013-03-04 19:11:00,69.3,48.7,-100.00,South,181,4.0,18.0,48,0.00,,,0.00,meteohub,2013-03-05 01:11:00,
2013-03-04 19:14:00,69.3,48.7,-100.00,South,179,5.0,18.0,48,0.00,,,0.00,meteohub,2013-03-05 01:14:00,
2013-03-04 19:15:00,69.1,48.6,-100.00,South,175,7.0,18.0,48,0.00,,,0.00,meteohub,2013-03-05 01:15:00,
2013-03-04 19:16:00,69.1,49.1,-100.00,South,176,7.0,18.0,49,0.00,,,0.00,meteohub,2013-03-05 01:16:00,
2013-03-04 19:19:00,68.9,48.9,-100.00,South,177,7.0,18.0,49,0.00,,,0.00,meteohub,2013-03-05 01:19:00,
2013-03-04 19:20:00,68.7,48.7,-100.00,South,178,6.0,14.0,49,0.00,,,0.00,meteohub,2013-03-05 01:20:00,
2013-03-04 19:21:00,68.7,48.7,-100.00,South,177,6.0,14.0,49,0.00,,,0.00,meteohub,2013-03-05 01:21:00,
2013-03-04 19:24:00,68.5,48.6,-100.00,South,176,5.0,14.0,49,0.00,,,0.00,meteohub,2013-03-05 01:24:00,
2013-03-04 19:26:00,68.5,48.6,-100.00,South,175,4.0,12.0,49,0.00,,,0.00,meteohub,2013-03-05 01:26:00,
2013-03-04 19:29:00,68.4,48.4,-100.00,South,185,4.0,12.0,49,0.00,,,0.00,meteohub,2013-03-05 01:29:00,
2013-03-04 19:30:00,68.4,48.4,-100.00,SSW,194,8.0,12.0,49,0.00,,,0.00,meteohub,2013-03-05 01:30:00,
2013-03-04 19:31:00,68.4,48.4,-100.00,SSW,194,5.0,12.0,49,0.00,,,0.00,meteohub,2013-03-05 01:31:00,
2013-03-04 19:34:00,68.4,48.4,-100.00,SSW,197,5.0,12.0,49,0.00,,,0.00,meteohub,2013-03-05 01:34:00,
2013-03-04 19:36:00,68.4,48.4,-100.00,South,190,6.0,18.0,49,0.00,,,0.00,meteohub,2013-03-05 01:36:00,
2013-03-04 19:37:00,68.4,48.4,-100.00,SSW,194,6.0,18.0,49,0.00,,,0.00,meteohub,2013-03-05 01:37:00,
2013-03-04 19:40:00,68.5,48.6,-100.00,South,188,5.0,18.0,49,0.00,,,0.00,meteohub,2013-03-05 01:40:00,
2013-03-04 19:41:00,68.5,48.0,-100.00,South,191,10.0,18.0,48,0.00,,,0.00,meteohub,2013-03-05 01:41:00,
2013-03-04 19:42:00,68.5,48.0,-100.00,South,188,5.0,18.0,48,0.00,,,0.00,meteohub,2013-03-05 01:42:00,
2013-03-04 19:45:00,68.7,48.2,-100.00,SSW,194,12.0,18.0,48,0.00,,,0.00,meteohub,2013-03-05 01:45:00,
2013-03-04 19:46:00,68.7,48.2,-100.00,South,188,7.0,18.0,48,0.00,,,0.00,meteohub,2013-03-05 01:46:00,
2013-03-04 19:47:00,68.7,48.2,-100.00,South,182,7.0,18.0,48,0.00,,,0.00,meteohub,2013-03-05 01:47:00,
2013-03-04 19:50:00,68.7,48.2,-100.00,South,185,7.0,15.0,48,0.00,,,0.00,meteohub,2013-03-05 01:50:00,
2013-03-04 19:51:00,68.7,48.2,-100.00,South,185,5.0,15.0,48,0.00,,,0.00,meteohub,2013-03-05 01:51:00,
2013-03-04 19:52:00,68.7,48.2,-100.00,South,184,7.0,15.0,48,0.00,,,0.00,meteohub,2013-03-05 01:52:00,
2013-03-04 19:53:00,68.7,48.2,-100.00,South,186,9.0,15.0,48,0.00,,,0.00,meteohub,2013-03-05 01:53:00,
2013-03-04 19:56:00,68.5,48.0,-100.00,South,188,5.0,15.0,48,0.00,,,0.00,meteohub,2013-03-05 01:56:00,
2013-03-04 19:57:00,68.5,48.0,-100.00,South,188,4.0,15.0,48,0.00,,,0.00,meteohub,2013-03-05 01:57:00,
2013-03-04 19:58:00,68.5,48.0,-100.00,South,188,6.0,15.0,48,0.00,,,0.00,meteohub,2013-03-05 01:58:00,
2013-03-04 20:01:00,68.4,48.4,-100.00,SSW,193,10.0,12.0,49,0.00,,,0.00,meteohub,2013-03-05 02:01:00,
2013-03-04 20:02:00,68.4,47.8,-100.00,South,184,9.0,12.0,48,0.00,,,0.00,meteohub,2013-03-05 02:02:00,
2013-03-04 20:04:00,68.4,47.8,-100.00,South,187,11.0,12.0,48,0.00,,,0.00,meteohub,2013-03-05 02:04:00,
2013-03-04 20:06:00,68.4,48.4,-100.00,South,184,6.0,11.0,49,0.00,,,0.00,meteohub,2013-03-05 02:06:00,
2013-03-04 20:07:00,68.4,48.4,-100.00,South,184,4.0,11.0,49,0.00,,,0.00,meteohub,2013-03-05 02:07:00,
2013-03-04 20:09:00,68.4,48.4,-100.00,SSW,198,5.0,11.0,49,0.00,,,0.00,meteohub,2013-03-05 02:09:00,
2013-03-04 20:11:00,68.2,48.4,-100.00,SSW,196,10.0,11.0,49,0.00,,,0.00,meteohub,2013-03-05 02:11:00,
2013-03-04 20:12:00,68.2,48.4,-100.00,South,177,9.0,11.0,49,0.00,,,0.00,meteohub,2013-03-05 02:12:00,
2013-03-04 20:14:00,68.2,48.4,-100.00,South,186,6.0,11.0,49,0.00,,,0.00,meteohub,2013-03-05 02:14:00,
2013-03-04 20:15:00,68.2,48.4,-100.00,South,188,7.0,11.0,49,0.00,,,0.00,meteohub,2013-03-05 02:15:00,
2013-03-04 20:16:00,67.8,48.0,-100.00,SSW,192,4.0,14.0,49,0.00,,,0.00,meteohub,2013-03-05 02:16:00,
2013-03-04 20:18:00,67.8,48.0,-100.00,SSW,192,7.0,14.0,49,0.00,,,0.00,meteohub,2013-03-05 02:18:00,
2013-03-04 20:19:00,67.8,48.0,-100.00,South,190,7.0,14.0,49,0.00,,,0.00,meteohub,2013-03-05 02:19:00,
2013-03-04 20:21:00,67.6,48.4,-100.00,South,189,10.0,14.0,50,0.00,,,0.00,meteohub,2013-03-05 02:21:00,
2013-03-04 20:22:00,67.6,48.4,-100.00,South,189,3.0,14.0,50,0.00,,,0.00,meteohub,2013-03-05 02:22:00,
2013-03-04 20:23:00,67.5,48.2,-100.00,South,189,4.0,14.0,50,0.00,,,0.00,meteohub,2013-03-05 02:23:00,
2013-03-04 20:24:00,67.5,48.2,-100.00,South,188,4.0,14.0,50,0.00,,,0.00,meteohub,2013-03-05 02:24:00,
2013-03-04 20:26:00,67.3,48.0,-100.00,South,189,5.0,13.0,50,0.00,,,0.00,meteohub,2013-03-05 02:26:00,
2013-03-04 20:27:00,67.3,48.0,-100.00,South,188,7.0,13.0,50,0.00,,,0.00,meteohub,2013-03-05 02:27:00,
2013-03-04 20:28:00,67.1,47.8,-100.00,South,187,7.0,13.0,50,0.00,,,0.00,meteohub,2013-03-05 02:28:00,
2013-03-04 20:30:00,66.9,48.2,-100.00,South,187,2.0,13.0,51,0.00,,,0.00,meteohub,2013-03-05 02:30:00,
2013-03-04 20:32:00,66.9,48.2,-100.00,South,187,6.0,11.0,51,0.00,,,0.00,meteohub,2013-03-05 02:32:00,
2013-03-04 20:34:00,66.7,48.0,-100.00,South,186,7.0,11.0,51,0.00,,,0.00,meteohub,2013-03-05 02:34:00,
2013-03-04 20:35:00,66.6,47.8,-100.00,South,186,2.0,11.0,51,0.00,,,0.00,meteohub,2013-03-05 02:35:00,
2013-03-04 20:37:00,66.4,47.7,-100.00,South,186,2.0,11.0,51,0.00,,,0.00,meteohub,2013-03-05 02:37:00,
2013-03-04 20:39:00,66.4,48.2,-100.00,South,186,2.0,11.0,52,0.00,,,0.00,meteohub,2013-03-05 02:39:00,
2013-03-04 20:41:00,66.0,47.8,-100.00,South,186,3.0,10.0,52,0.00,,,0.00,meteohub,2013-03-05 02:41:00,
2013-03-04 20:42:00,66.0,47.8,-100.00,South,186,1.0,10.0,52,0.00,,,0.00,meteohub,2013-03-05 02:42:00,
2013-03-04 20:44:00,65.8,48.2,-100.00,South,186,3.0,10.0,53,0.00,,,0.00,meteohub,2013-03-05 02:44:00,
2013-03-04 20:46:00,65.7,48.0,-100.00,South,186,1.0,9.0,53,0.00,,,0.00,meteohub,2013-03-05 02:46:00,
2013-03-04 20:47:00,65.7,48.0,-100.00,South,186,4.0,9.0,53,0.00,,,0.00,meteohub,2013-03-05 02:47:00,
2013-03-04 20:49:00,65.3,47.7,-100.00,South,187,5.0,9.0,53,0.00,,,0.00,meteohub,2013-03-05 02:49:00,
2013-03-04 20:51:00,65.3,47.7,-100.00,South,187,3.0,8.0,53,0.00,,,0.00,meteohub,2013-03-05 02:51:00,
2013-03-04 20:52:00,65.1,47.5,-100.00,South,187,5.0,8.0,53,0.00,,,0.00,meteohub,2013-03-05 02:52:00,
2013-03-04 20:54:00,64.9,47.8,-100.00,South,186,5.0,8.0,54,0.00,,,0.00,meteohub,2013-03-05 02:54:00,
2013-03-04 20:56:00,64.9,47.8,-100.00,South,186,9.0,9.0,54,0.00,,,0.00,meteohub,2013-03-05 02:56:00,
2013-03-04 20:58:00,64.8,47.7,-100.00,South,186,6.0,8.0,54,0.00,,,0.00,meteohub,2013-03-05 02:58:00,
2013-03-04 21:00:00,64.8,47.7,-100.00,South,186,5.0,8.0,54,0.00,,,0.00,meteohub,2013-03-05 03:00:00,
2013-03-04 21:02:00,64.8,47.7,-100.00,South,186,5.0,9.0,54,0.00,,,0.00,meteohub,2013-03-05 03:02:00,
2013-03-04 21:03:00,64.8,47.7,-100.00,South,185,3.0,9.0,54,0.00,,,0.00,meteohub,2013-03-05 03:03:00,
2013-03-04 21:05:00,64.8,47.7,-100.00,South,185,7.0,9.0,54,0.00,,,0.00,meteohub,2013-03-05 03:05:00,
2013-03-04 21:07:00,64.6,48.0,-100.00,South,185,1.0,9.0,55,0.00,,,0.00,meteohub,2013-03-05 03:07:00,
2013-03-04 21:08:00,64.6,48.0,-100.00,South,185,3.0,9.0,55,0.00,,,0.00,meteohub,2013-03-05 03:08:00,
2013-03-04 21:09:00,64.6,48.0,-100.00,South,185,4.0,9.0,55,0.00,,,0.00,meteohub,2013-03-05 03:09:00,
2013-03-04 21:10:00,64.2,47.7,-100.00,South,185,5.0,9.0,55,0.00,,,0.00,meteohub,2013-03-05 03:10:00,
2013-03-04 21:12:00,64.2,47.7,-100.00,South,186,2.0,9.0,55,0.00,,,0.00,meteohub,2013-03-05 03:12:00,
2013-03-04 21:13:00,64.2,47.7,-100.00,South,185,3.0,9.0,55,0.00,,,0.00,meteohub,2013-03-05 03:13:00,
2013-03-04 21:14:00,64.2,47.7,-100.00,South,186,4.0,9.0,55,0.00,,,0.00,meteohub,2013-03-05 03:14:00,
2013-03-04 21:15:00,64.2,47.7,-100.00,South,186,3.0,7.0,55,0.00,,,0.00,meteohub,2013-03-05 03:15:00,
2013-03-04 21:17:00,64.2,47.7,-100.00,South,186,3.0,7.0,55,0.00,,,0.00,meteohub,2013-03-05 03:17:00,
2013-03-04 21:18:00,64.2,47.7,-100.00,South,186,6.0,7.0,55,0.00,,,0.00,meteohub,2013-03-05 03:18:00,
2013-03-04 21:19:00,64.2,47.7,-100.00,South,186,3.0,7.0,55,0.00,,,0.00,meteohub,2013-03-05 03:19:00,
2013-03-04 21:20:00,64.0,47.5,-100.00,SSW,192,10.0,10.0,55,0.00,,,0.00,meteohub,2013-03-05 03:20:00,
2013-03-04 21:22:00,64.2,47.7,-100.00,South,191,6.0,10.0,55,0.00,,,0.00,meteohub,2013-03-05 03:22:00,
2013-03-04 21:24:00,64.2,47.7,-100.00,South,191,5.0,10.0,55,0.00,,,0.00,meteohub,2013-03-05 03:24:00,
2013-03-04 21:26:00,64.2,47.7,-100.00,SSW,193,5.0,10.0,55,0.00,,,0.00,meteohub,2013-03-05 03:26:00,
2013-03-04 21:28:00,64.2,47.7,-100.00,SSW,193,3.0,10.0,55,0.00,,,0.00,meteohub,2013-03-05 03:28:00,
2013-03-04 21:29:00,64.6,48.0,-100.00,SSW,194,5.0,10.0,55,0.00,,,0.00,meteohub,2013-03-05 03:29:00,
2013-03-04 21:31:00,64.6,48.0,-100.00,SSW,194,4.0,10.0,55,0.00,,,0.00,meteohub,2013-03-05 03:31:00,
2013-03-04 21:34:00,64.8,47.7,-100.00,South,191,4.0,10.0,54,0.00,,,0.00,meteohub,2013-03-05 03:34:00,
2013-03-04 21:35:00,64.8,47.7,-100.00,South,190,5.0,10.0,54,0.00,,,0.00,meteohub,2013-03-05 03:35:00,
2013-03-04 21:36:00,64.8,47.7,-100.00,SSW,192,3.0,10.0,54,0.00,,,0.00,meteohub,2013-03-05 03:36:00,
2013-03-04 21:39:00,64.8,47.7,-100.00,South,182,4.0,10.0,54,0.00,,,0.00,meteohub,2013-03-05 03:39:00,
2013-03-04 21:41:00,64.8,47.7,-100.00,South,185,6.0,11.0,54,0.00,,,0.00,meteohub,2013-03-05 03:41:00,
2013-03-04 21:44:00,64.8,47.7,-100.00,South,182,3.0,11.0,54,0.00,,,0.00,meteohub,2013-03-05 03:44:00,
2013-03-04 21:45:00,64.8,47.7,-100.00,South,185,11.0,13.0,54,0.00,,,0.00,meteohub,2013-03-05 03:45:00,
2013-03-04 21:46:00,64.9,47.8,-100.00,South,190,6.0,13.0,54,0.00,,,0.00,meteohub,2013-03-05 03:46:00,
2013-03-04 21:49:00,65.1,48.0,-100.00,South,190,5.0,13.0,54,0.00,,,0.00,meteohub,2013-03-05 03:49:00,
2013-03-04 21:51:00,65.3,48.2,-100.00,South,186,5.0,14.0,54,0.00,,,0.00,meteohub,2013-03-05 03:51:00,
2013-03-04 21:52:00,65.5,48.4,-100.00,South,186,6.0,14.0,54,0.00,,,0.00,meteohub,2013-03-05 03:52:00,
2013-03-04 21:54:00,65.5,48.4,-100.00,South,189,6.0,14.0,54,0.00,,,0.00,meteohub,2013-03-05 03:54:00,
2013-03-04 21:56:00,65.7,48.6,-100.00,South,187,4.0,14.0,54,0.00,,,0.00,meteohub,2013-03-05 03:56:00,
2013-03-04 21:57:00,65.7,48.6,-100.00,South,187,3.0,14.0,54,0.00,,,0.00,meteohub,2013-03-05 03:57:00,
2013-03-04 21:59:00,65.8,48.7,-100.00,South,176,3.0,14.0,54,0.00,,,0.00,meteohub,2013-03-05 03:59:00,
2013-03-04 22:01:00,66.0,48.9,-100.00,South,171,5.0,14.0,54,0.00,,,0.00,meteohub,2013-03-05 04:01:00,
2013-03-04 22:02:00,66.0,48.9,-100.00,South,171,3.0,14.0,54,0.00,,,0.00,meteohub,2013-03-05 04:02:00,
2013-03-04 22:04:00,66.0,48.9,-100.00,South,172,6.0,14.0,54,0.00,,,0.00,meteohub,2013-03-05 04:04:00,
2013-03-04 22:07:00,66.0,48.9,-100.00,South,188,5.0,11.0,54,0.00,,,0.00,meteohub,2013-03-05 04:07:00,
2013-03-04 22:10:00,66.0,48.9,-100.00,South,175,9.0,11.0,54,0.00,,,0.00,meteohub,2013-03-05 04:10:00,
2013-03-04 22:12:00,66.0,48.9,-100.00,South,171,2.0,12.0,54,0.00,,,0.00,meteohub,2013-03-05 04:12:00,
2013-03-04 22:13:00,66.0,48.9,-100.00,South,171,5.0,12.0,54,0.00,,,0.00,meteohub,2013-03-05 04:13:00,
2013-03-04 22:15:00,65.8,49.3,-100.00,SSE,168,7.0,12.0,55,0.00,,,0.00,meteohub,2013-03-05 04:15:00,
2013-03-04 22:17:00,65.8,49.3,-100.00,South,169,4.0,12.0,55,0.00,,,0.00,meteohub,2013-03-05 04:17:00,
2013-03-04 22:18:00,65.7,49.1,-100.00,SSE,164,5.0,12.0,55,0.00,,,0.00,meteohub,2013-03-05 04:18:00,
2013-03-04 22:20:00,65.7,49.5,-100.00,South,178,3.0,12.0,56,0.00,,,0.00,meteohub,2013-03-05 04:20:00,
2013-03-04 22:22:00,65.5,49.3,-100.00,South,175,5.0,12.0,56,0.00,,,0.00,meteohub,2013-03-05 04:22:00,
2013-03-04 22:23:00,65.5,49.3,-100.00,South,173,4.0,12.0,56,0.00,,,0.00,meteohub,2013-03-05 04:23:00,
2013-03-04 22:25:00,65.3,49.6,-100.00,South,178,2.0,13.0,57,0.00,,,0.00,meteohub,2013-03-05 04:25:00,
2013-03-04 22:28:00,65.1,49.5,-100.00,South,180,8.0,13.0,57,0.00,,,0.00,meteohub,2013-03-05 04:28:00,
2013-03-04 22:31:00,65.1,50.4,-100.00,South,188,5.0,13.0,59,0.00,,,0.00,meteohub,2013-03-05 04:31:00,
2013-03-04 22:33:00,64.9,50.2,-100.00,South,184,4.0,13.0,59,0.00,,,0.00,meteohub,2013-03-05 04:33:00,
2013-03-04 22:34:00,64.9,50.2,-100.00,South,184,7.0,13.0,59,0.00,,,0.00,meteohub,2013-03-05 04:34:00,
2013-03-04 22:36:00,64.9,50.7,-100.00,South,182,5.0,13.0,60,0.00,,,0.00,meteohub,2013-03-05 04:36:00,
2013-03-04 22:39:00,64.9,50.7,-100.00,South,181,6.0,13.0,60,0.00,,,0.00,meteohub,2013-03-05 04:39:00,
2013-03-04 22:41:00,64.8,51.1,-100.00,South,180,4.0,12.0,61,0.00,,,0.00,meteohub,2013-03-05 04:41:00,
2013-03-04 22:44:00,64.8,51.1,-100.00,South,190,3.0,12.0,61,0.00,,,0.00,meteohub,2013-03-05 04:44:00,
2013-03-04 22:45:00,64.8,51.1,-100.00,South,188,5.0,12.0,61,0.00,,,0.00,meteohub,2013-03-05 04:45:00,
2013-03-04 22:47:00,64.8,51.1,-100.00,South,187,4.0,13.0,61,0.00,,,0.00,meteohub,2013-03-05 04:47:00,
2013-03-04 22:49:00,64.8,51.4,-100.00,SSW,194,10.0,13.0,62,0.00,,,0.00,meteohub,2013-03-05 04:49:00,
2013-03-04 22:50:00,64.8,51.4,-100.00,SSW,196,12.0,13.0,62,0.00,,,0.00,meteohub,2013-03-05 04:50:00,
2013-03-04 22:52:00,64.8,51.8,-100.00,South,185,4.0,13.0,63,0.00,,,0.00,meteohub,2013-03-05 04:52:00,
2013-03-04 22:54:00,64.6,51.6,-100.00,South,189,5.0,13.0,63,0.00,,,0.00,meteohub,2013-03-05 04:54:00,
2013-03-04 22:55:00,64.6,51.6,-100.00,South,188,5.0,13.0,63,0.00,,,0.00,meteohub,2013-03-05 04:55:00,
2013-03-04 22:57:00,64.6,51.6,-100.00,South,186,6.0,13.0,63,0.00,,,0.00,meteohub,2013-03-05 04:57:00,
2013-03-04 22:59:00,64.2,51.8,-100.00,South,186,6.0,13.0,64,0.00,,,0.00,meteohub,2013-03-05 04:59:00,
2013-03-04 23:00:00,64.2,51.8,-100.00,South,185,3.0,13.0,64,0.00,,,0.00,meteohub,2013-03-05 05:00:00,
2013-03-04 23:01:00,64.2,51.8,-100.00,South,185,5.0,13.0,64,0.00,,,0.00,meteohub,2013-03-05 05:01:00,
2013-03-04 23:05:00,64.0,51.6,-100.00,South,185,5.0,12.0,64,0.00,,,0.00,meteohub,2013-03-05 05:05:00,
2013-03-04 23:06:00,64.0,51.6,-100.00,South,186,2.0,12.0,64,0.00,,,0.00,meteohub,2013-03-05 05:06:00,
2013-03-04 23:07:00,63.9,51.8,-100.00,South,186,2.0,12.0,65,0.00,,,0.00,meteohub,2013-03-05 05:07:00,
2013-03-04 23:10:00,63.7,52.2,-100.00,South,191,4.0,9.0,66,0.00,,,0.00,meteohub,2013-03-05 05:10:00,
2013-03-04 23:11:00,63.7,52.2,-100.00,SSW,192,1.0,9.0,66,0.00,,,0.00,meteohub,2013-03-05 05:11:00,
2013-03-04 23:12:00,63.7,52.2,-100.00,SSW,192,0.0,9.0,66,0.00,,,0.00,meteohub,2013-03-05 05:12:00,
2013-03-04 23:15:00,63.5,52.0,-100.00,SSW,211,5.0,7.0,66,0.00,,,0.00,meteohub,2013-03-05 05:15:00,
2013-03-04 23:16:00,63.3,51.8,-100.00,SW,221,6.0,7.0,66,0.00,,,0.00,meteohub,2013-03-05 05:16:00,
2013-03-04 23:17:00,63.3,51.8,-100.00,WSW,250,4.0,7.0,66,0.00,,,0.00,meteohub,2013-03-05 05:17:00,
2013-03-04 23:20:00,63.1,52.0,-100.00,NW,321,7.0,7.0,67,0.00,,,0.00,meteohub,2013-03-05 05:20:00,
2013-03-04 23:21:00,63.1,52.0,-100.00,NW,323,5.0,7.0,67,0.00,,,0.00,meteohub,2013-03-05 05:21:00,
2013-03-04 23:22:00,63.0,51.8,-100.00,NW,323,5.0,7.0,67,0.00,,,0.00,meteohub,2013-03-05 05:22:00,
2013-03-04 23:25:00,62.8,51.6,-100.00,NW,323,2.0,9.0,67,0.00,,,0.00,meteohub,2013-03-05 05:25:00,
2013-03-04 23:26:00,62.8,51.6,-100.00,NW,321,4.0,9.0,67,0.00,,,0.00,meteohub,2013-03-05 05:26:00,
2013-03-04 23:27:00,62.8,51.6,-100.00,NW,319,6.0,9.0,67,0.00,,,0.00,meteohub,2013-03-05 05:27:00,
2013-03-04 23:31:00,62.8,51.6,-100.00,NW,320,9.0,11.0,67,0.00,,,0.00,meteohub,2013-03-05 05:31:00,
2013-03-04 23:32:00,63.0,51.4,-100.00,WNW,302,7.0,11.0,66,0.00,,,0.00,meteohub,2013-03-05 05:32:00,
2013-03-04 23:34:00,63.1,51.6,-100.00,WNW,297,13.0,13.0,66,0.00,,,0.00,meteohub,2013-03-05 05:34:00,
2013-03-04 23:36:00,63.1,50.7,-100.00,WNW,302,9.0,14.0,64,0.00,,,0.00,meteohub,2013-03-05 05:36:00,
2013-03-04 23:37:00,63.1,50.7,-100.00,WNW,300,8.0,14.0,64,0.00,,,0.00,meteohub,2013-03-05 05:37:00,
2013-03-04 23:38:00,63.3,50.9,-100.00,WNW,294,10.0,14.0,64,0.00,,,0.00,meteohub,2013-03-05 05:38:00,
2013-03-04 23:39:00,63.3,50.9,-100.00,WNW,300,9.0,14.0,64,0.00,,,0.00,meteohub,2013-03-05 05:39:00,
2013-03-04 23:41:00,63.5,50.7,-100.00,WNW,302,4.0,17.0,63,0.00,,,0.00,meteohub,2013-03-05 05:41:00,
2013-03-04 23:42:00,63.5,50.7,-100.00,NW,304,2.0,17.0,63,0.00,,,0.00,meteohub,2013-03-05 05:42:00,
2013-03-04 23:44:00,63.7,50.9,-100.00,NW,306,4.0,17.0,63,0.00,,,0.00,meteohub,2013-03-05 05:44:00,
2013-03-04 23:46:00,63.7,50.4,-100.00,NW,311,8.0,17.0,62,0.00,,,0.00,meteohub,2013-03-05 05:46:00,
2013-03-04 23:47:00,63.7,50.4,-100.00,NW,309,3.0,17.0,62,0.00,,,0.00,meteohub,2013-03-05 05:47:00,
2013-03-04 23:49:00,63.9,50.2,-100.00,NW,318,2.0,17.0,61,0.00,,,0.00,meteohub,2013-03-05 05:49:00,
2013-03-04 23:50:00,63.9,50.2,-100.00,NW,317,4.0,12.0,61,0.00,,,0.00,meteohub,2013-03-05 05:50:00,
2013-03-04 23:52:00,64.0,49.8,-100.00,NW,317,2.0,12.0,60,0.00,,,0.00,meteohub,2013-03-05 05:52:00,
2013-03-04 23:54:00,64.2,49.6,-100.00,NW,317,3.0,12.0,59,0.00,,,0.00,meteohub,2013-03-05 05:54:00,
2013-03-04 23:56:00,64.2,49.6,-100.00,NW,317,2.0,9.0,59,0.00,,,0.00,meteohub,2013-03-05 05:56:00,
2013-03-04 23:57:00,64.6,49.5,-100.00,NW,317,2.0,9.0,58,0.00,,,0.00,meteohub,2013-03-05 05:57:00,
2013-03-04 23:58:00,64.6,49.5,-100.00,NW,317,4.0,9.0,58,0.00,,,0.00,meteohub,2013-03-05 05:58:00,
2013-03-04 23:59:00,64.6,49.5,-100.00,NW,317,3.0,9.0,58,0.00,,,0.00,meteohub,2013-03-05 05:59:00,